Advertisement
Guest User

AMP log 2

a guest
Jun 7th, 2022
32
Never
Not a member of Pastebin yet? Sign Up, it unlocks many cool features!
  1. [15:56:35] [Core Warning]         : Current time zone is set to Central Europe Standard Time - Servers should ideally be UTC to avoid time-zone related issues
  2. [15:56:35] [Core Info]            : OS: Windows / x86_64
  3. [15:56:35] [Core Info]            : CPU: Intel(R) Celeron(R) N5100 @ 1.10GHz (4C/4T)
  4. [15:56:35] [Core Info]            : AMP Instance ID: 2732e71b-9bbc-4a87-9938-9ca7e2ef14f4
  5. [15:56:35] [Generic Info]         : 4 Legacy ports migrated.
  6. [15:56:35] [ModuleLoader Info]    : Loaded GenericModule version 1.0.0.0 by CubeCoders Limited
  7. [15:56:35] [Core Info]            : Metrics publishing is enabled at udp://127.0.0.1:12820.
  8. [15:56:35] [ModuleLoader Info]    : Loaded FileManagerPlugin version 1.0.0.0 by CubeCoders Limited
  9. [15:56:35] [ModuleLoader Info]    : Loaded EmailSenderPlugin version 1.0.0.0 by CubeCoders Limited
  10. [15:56:35] [ModuleLoader Info]    : Loaded WebRequestPlugin version 1.0.0.0 by CubeCoders Limited
  11. [15:56:35] [ModuleLoader Info]    : Loaded LocalFileBackupPlugin version 1.0.0.0 by CubeCoders Limited
  12. [15:56:35] [ModuleLoader Info]    : Loaded CommonCorePlugin version 1.0.0.0 by CubeCoders Limited
  13. [15:56:35] [ModuleLoader Info]    : GenericModule requests dependency steamcmdplugin...
  14. [15:56:35] [ModuleLoader Info]    : Loaded steamcmdplugin version 1.0.0.0 by CubeCoders Limited
  15. [15:56:35] [ModuleLoader Info]    : GenericModule requests dependency RCONPlugin...
  16. [15:56:35] [ModuleLoader Info]    : Loaded RCONPlugin version 1.0.0.1 by CubeCoders Limited
  17. [15:56:35] [Core Info]            : Licence Present: AMP Professional Edition (Licenced to Andreas Novotný)
  18. [15:56:36] [FileManager Notice]   : Using keypair with fingerprint CKY5enSr/50EWZPgR7avCPClfG7JmzXIcn1P1z8IlAM=
  19. [15:56:36] [FileManager Info]     : SFTP Server started on 0.0.0.0:2230
  20. [15:56:36] [WebServer Info]       : Websockets are enabled.
  21. [15:56:36] [WebServer Info]       : Webserver started on http://0.0.0.0:8087
  22. [15:56:36] [WebServer Warning]    : RouterTimer@10Hz with 2 jobs started
  23. [15:56:36] [Core Info]            : Checking for AMP updates...
  24. [15:56:36] [Generic Info]         : I am not generating a new RemoteAdminPassword.
  25. [15:56:36] [Core Info]            : AMP is up-to-date.
  26. [15:56:36] [Generic Info]         : Merging config file ./project-zomboid/380870/Zomboid/Server/servertest.ini (KVP format)
  27. DEBUG: General , 1654610196905> 316 613 966> LoggerManager.init > Initializing...
  28. LOG : General , 1654610196974> 316 614 023> cachedir set to "G:\AMP\Instances\ProjectZomboid\project-zomboid\380870\.\Zomboid"
  29. LOG : General , 1654610197074> 316 614 123> versionNumber=41.71 demo=false
  30. LOG : General , 1654610197075> 316 614 124> svnRevision= date= time=
  31. LOG : General , 1654610197303> 316 614 352> unknown option "0"
  32. LOG : General , 1654610197304> 316 614 353> unknown option "--"
  33. LOG : General , 1654610197305> 316 614 353> server name is "servertest"
  34. LOG : General , 1654610197306> 316 614 354> checking server WorldVersion in map_t.bin
  35. LOG : General , 1654610197309> 316 614 357> Loading networking libraries...
  36. LOG : General , 1654610197310> 316 614 358> Loading steam_api64...
  37. LOG : General , 1654610197312> 316 614 360> Loading RakNet64...
  38. LOG : General , 1654610197314> 316 614 363> Loading ZNetJNI64...
  39. LOG : General , 1654610197339> 316 614 387> 1654610197333 znet: ZNet loaded
  40. LOG : General , 1654610197341> 316 614 390> 1654610197341 znet: Compiled with SERVER_STEAMAPI == 0
  41. LOG : General , 1654610197342> 316 614 390> 1654610197342 znet: Starting with bServer == true
  42. LOG : General , 1654610197342> 316 614 391> 1654610197342 znet: SteamAPI initialised successfully
  43. LOG : General , 1654610197342> 316 614 391> SteamUtils initialised successfully
  44. LOG : General , 1654610201232> 316 618 281> translator: language is EN
  45. LOG : General , 1654610201520> 316 618 569> LightingFPS set to 15
  46. LOG : General , 1654610201546> 316 618 594> reading G:\AMP\Instances\ProjectZomboid\project-zomboid\380870\.\Zomboid\Server\servertest.ini
  47. LOG : General , 1654610201548> 316 618 597> writing G:\AMP\Instances\ProjectZomboid\project-zomboid\380870\.\Zomboid\Server\servertest.ini
  48. LOG : General , 1654610201558> 316 618 606> 1654610201558 znet: Java_zombie_core_znet_SteamGameServer_Init
  49. Setting breakpad minidump AppID = 108600
  50. LOG : General , 1654610201621> 316 618 669> 1654610201620 znet: SteamGameServer seems to be initialized
  51. LOG : General , 1654610201621> 316 618 670> 1654610201621 znet: Java_zombie_core_znet_SteamGameServer_SetProduct
  52. LOG : General , 1654610201622> 316 618 671> 1654610201622 znet: Java_zombie_core_znet_SteamGameServer_SetGameDescription
  53. LOG : General , 1654610201623> 316 618 671> 1654610201623 znet: Java_zombie_core_znet_SteamGameServer_SetModDir
  54. LOG : General , 1654610201623> 316 618 672> 1654610201623 znet: Java_zombie_core_znet_SteamGameServer_SetDedicatedServer
  55. LOG : General , 1654610201624> 316 618 673> 1654610201624 znet: Java_zombie_core_znet_SteamGameServer_SetMaxPlayerCount
  56. LOG : General , 1654610201625> 316 618 673> 1654610201625 znet: Java_zombie_core_znet_SteamGameServer_SetServerName 'ENY'
  57. LOG : General , 1654610201626> 316 618 674> 1654610201626 znet: Java_zombie_core_znet_SteamGameServer_SetMapName 'Rosewood, KY; Muldraugh, KY'
  58. LOG : General , 1654610201626> 316 618 675> 1654610201626 znet: Java_zombie_core_znet_SteamGameServer_SetGameTags ''
  59. LOG : General , 1654610201627> 316 618 676> 1654610201627 znet: Java_zombie_core_znet_SteamGameServer_SetKeyValue key='description' value=''
  60. LOG : General , 1654610201628> 316 618 677> 1654610201628 znet: Java_zombie_core_znet_SteamGameServer_SetKeyValue key='version' value='41.71'
  61. LOG : General , 1654610201629> 316 618 677> 1654610201629 znet: Java_zombie_core_znet_SteamGameServer_SetKeyValue key='open' value='1'
  62. LOG : General , 1654610201629> 316 618 678> 1654610201629 znet: Java_zombie_core_znet_SteamGameServer_SetKeyValue key='public' value='1'
  63. LOG : General , 1654610201630> 316 618 679> 1654610201630 znet: Java_zombie_core_znet_SteamGameServer_SetKeyValue key='mods' value=''
  64. LOG : General , 1654610201631> 316 618 680> 1654610201631 znet: Java_zombie_core_znet_SteamGameServer_SetKeyValue key='modCount' value='0'
  65. LOG : General , 1654610201632> 316 618 681> 1654610201632 znet: Java_zombie_core_znet_SteamGameServer_SetKeyValue key='pvp' value='0'
  66. LOG : General , 1654610201634> 316 618 683> 1654610201634 znet: Java_zombie_core_znet_SteamWorkshop_n_1Init
  67. LOG : General , 1654610201635> 316 618 684> 1654610201635 znet: Java_zombie_core_znet_SteamGameServer_LogOnAnonymous
  68. LOG : General , 1654610201636> 316 618 685> 1654610201636 znet: Java_zombie_core_znet_SteamGameServer_EnableHeartBeats
  69. LOG : General , 1654610201637> 316 618 685> Waiting for response from Steam servers
  70. [15:56:41] [Core:Anonymous Activity] : Authentication attempt for user admin from 127.0.0.1
  71. LOG : General , 1654610202553> 316 619 602> 1654610202553 znet: OnSteamServersConnected
  72. LOG : General , 1654610202554> 316 619 603> 1654610202554 znet: Public IP: 78.45.231.105
  73. LOG : General , 1654610202557> 316 619 606> Start making backup to: G:\AMP\Instances\ProjectZomboid\project-zomboid\380870\.\Zomboid\backups\startup
  74. [15:56:44] [Core:Anonymous Activity] : Authentication success
  75. LOG : General , 1654610205506> 316 622 555> compressionElapsed=1517ms, mergingElapsed=1424ms
  76. LOG : General , 1654610208413> 316 625 461> Backup made in 5851 ms
  77. LOG : General , 1654610208422> 316 625 471> user database "G:\AMP\Instances\ProjectZomboid\project-zomboid\380870\.\Zomboid\db\servertest.db"
  78. LOG : Network , 1654610208519> 316 625 568> Initialising Server Systems...
  79. LOG : Lua , 1654610209615> 316 626 664> Loading: media/lua/shared/Sandbox/Apocalypse.lua
  80. LOG : General , 1654610211488> 316 628 537> scriptChecksum: d80545eb3a13937b2f297e0a427e485b
  81. WARN : Recipe , 1654610211522> 316 628 571> RecipeManager.resolveItemModuleDotType> WARNING: module "Base" may have forgot to import module Base
  82. WARN : Script , 1654610211540> 316 628 589> ModelScript.check> no such model "null" for Base.BareHands
  83. WARN : Script , 1654610211544> 316 628 593> ModelScript.check> no such model "???.DisposableRazor" for Base.Razor
  84. WARN : Script , 1654610211553> 316 628 602> ModelScript.check> no such model "???.Nettles_Ground" for Base.Nettles
  85. WARN : Script , 1654610211559> 316 628 607> ModelScript.check> no such model "Chainsaw" for Base.Chainsaw
  86. LOG : General , 1654610212803> 316 629 852> LOADING ASSETS: START
  87. LOG : General , 1654610247076> 316 664 125> LOADING ASSETS: FINISH
  88. LOG : Lua , 1654610247543> 316 664 591> Loading: media/lua/shared/Definitions/AttachedWeaponDefinitions.lua
  89. LOG : Lua , 1654610247556> 316 664 604> Loading: media/lua/shared/Definitions/ClothingRecipesDefinitions.lua
  90. LOG : Lua , 1654610247558> 316 664 607> Loading: media/lua/shared/Definitions/ClothingSelectionDefinitions.lua
  91. LOG : Lua , 1654610247564> 316 664 612> Loading: media/lua/shared/Definitions/ContainerButtonIcons.lua
  92. LOG : Lua , 1654610247601> 316 664 650> Loading: media/lua/shared/Definitions/DamageModelDefinitions.lua
  93. LOG : Lua , 1654610247608> 316 664 656> Loading: media/lua/shared/Definitions/DefaultClothing.lua
  94. LOG : Lua , 1654610247610> 316 664 659> Loading: media/lua/shared/Definitions/FitnessExercises.lua
  95. LOG : Lua , 1654610247615> 316 664 663> Loading: media/lua/shared/Definitions/HairOutfitDefinitions.lua
  96. LOG : Lua , 1654610247618> 316 664 667> Loading: media/lua/shared/Definitions/MakeUpDefinitions.lua
  97. LOG : Lua , 1654610247625> 316 664 673> Loading: media/lua/shared/Definitions/MapSymbolDefinitions.lua
  98. LOG : Lua , 1654610247635> 316 664 684> Loading: media/lua/shared/Definitions/SmashedCarDefinitions.lua
  99. LOG : Lua , 1654610247641> 316 664 689> Loading: media/lua/shared/Definitions/UnderwearDefinition.lua
  100. LOG : Lua , 1654610247645> 316 664 694> Loading: media/lua/shared/Fishing/fishing_properties.lua
  101. LOG : Lua , 1654610247659> 316 664 708> Loading: media/lua/shared/Foraging/forageDefinitions.lua
  102. LOG : Lua , 1654610247743> 316 664 791> Loading: media/lua/shared/Foraging/forageSystem.lua
  103. LOG : Lua , 1654610247770> 316 664 819> Loading: media/lua/shared/ISBaseObject.lua
  104. LOG : Lua , 1654610247772> 316 664 820> Loading: media/lua/shared/JoyPad/JoyPadSetup.lua
  105. LOG : Lua , 1654610247787> 316 664 835> Loading: media/lua/shared/Logs/ISLogSystem.lua
  106. LOG : Lua , 1654610247790> 316 664 839> Loading: media/lua/shared/Logs/ISPerkLog.lua
  107. LOG : Lua , 1654610247794> 316 664 843> Loading: media/lua/shared/NPCs/AttachedLocations.lua
  108. LOG : Lua , 1654610247805> 316 664 853> Loading: media/lua/shared/NPCs/BodyLocations.lua
  109. LOG : Lua , 1654610247827> 316 664 876> Loading: media/lua/shared/NPCs/MainCreationMethods.lua
  110. LOG : Lua , 1654610247881> 316 664 930> Loading: media/lua/shared/NPCs/ZombiesZoneDefinition.lua
  111. LOG : Lua , 1654610247888> 316 664 937> Loading: media/lua/shared/RecordedMedia/ISRecordeMedia.lua
  112. LOG : Lua , 1654610247890> 316 664 939> Loading: media/lua/shared/RecordedMedia/recorded_media.lua
  113. LOG : Lua , 1654610248011> 316 665 060> Loading: media/lua/shared/Reloading/ISRackAction.lua
  114. LOG : Lua , 1654610248014> 316 665 062> Loading: media/lua/shared/TimedActions/ISBaseTimedAction.lua
  115. LOG : Lua , 1654610248017> 316 665 066> Loading: media/lua/shared/Reloading/ISReloadAction.lua
  116. LOG : Lua , 1654610248021> 316 665 070> Loading: media/lua/shared/Reloading/ISReloadManager.lua
  117. LOG : Lua , 1654610248028> 316 665 077> Loading: media/lua/shared/Reloading/ISReloadUtil.lua
  118. LOG : Lua , 1654610248034> 316 665 083> Loading: media/lua/shared/Reloading/ISReloadableMagazine.lua
  119. LOG : Lua , 1654610248039> 316 665 088> Loading: media/lua/shared/Reloading/ISReloadable.lua
  120. LOG : Lua , 1654610248046> 316 665 095> Loading: media/lua/shared/Reloading/ISSemiAutoWeapon.lua
  121. LOG : Lua , 1654610248056> 316 665 104> Loading: media/lua/shared/Reloading/ISReloadableWeapon.lua
  122. LOG : Lua , 1654610248059> 316 665 108> Loading: media/lua/shared/Reloading/ISShotgunWeapon.lua
  123. LOG : Lua , 1654610248071> 316 665 119> Loading: media/lua/shared/Reloading/ISRevolverWeapon.lua
  124. LOG : Lua , 1654610248076> 316 665 125> Loading: media/lua/shared/Reloading/stormysReload.lua
  125. LOG : Lua , 1654610248080> 316 665 129> Loading: media/lua/shared/Sandbox/Beginner.lua
  126. LOG : Lua , 1654610248085> 316 665 133> Loading: media/lua/shared/Sandbox/Builder.lua
  127. LOG : Lua , 1654610248091> 316 665 139> Loading: media/lua/shared/Sandbox/FirstWeek.lua
  128. LOG : Lua , 1654610248093> 316 665 142> Loading: media/lua/shared/Sandbox/SandboxVars.lua
  129. LOG : Lua , 1654610248097> 316 665 146> Loading: media/lua/shared/Sandbox/Survival.lua
  130. LOG : Lua , 1654610248101> 316 665 150> Loading: media/lua/shared/Sandbox/SixMonthsLater.lua
  131. LOG : Lua , 1654610248105> 316 665 154> Loading: media/lua/shared/Sandbox/Survivor.lua
  132. LOG : Lua , 1654610248108> 316 665 157> Loading: media/lua/shared/SoundBanks/SoundBanks.lua
  133. LOG : Lua , 1654610248116> 316 665 165> Loading: media/lua/shared/SpawnRegions.lua
  134. LOG : Lua , 1654610248120> 316 665 169> Loading: media/lua/shared/StashDescriptions/MarchRidgeStashDesc.lua
  135. LOG : Lua , 1654610248123> 316 665 172> Loading: media/lua/shared/StashDescriptions/StashUtil.lua
  136. LOG : Lua , 1654610248127> 316 665 176> Loading: media/lua/shared/StashDescriptions/MulStashDesc.lua
  137. LOG : Lua , 1654610248133> 316 665 182> Loading: media/lua/shared/StashDescriptions/RosewoodStashDesc.lua
  138. LOG : Lua , 1654610248136> 316 665 185> Loading: media/lua/shared/StashDescriptions/WpStashDesc.lua
  139. LOG : Lua , 1654610248142> 316 665 191> Loading: media/lua/shared/Util/AdjacentFreeTileFinder.lua
  140. LOG : Lua , 1654610248151> 316 665 199> Loading: media/lua/shared/Util/BuildingHelper.lua
  141. LOG : Lua , 1654610248153> 316 665 202> Loading: media/lua/shared/Util/ISPriorityTable.lua
  142. LOG : Lua , 1654610248157> 316 665 206> Loading: media/lua/shared/Util/LuaList.lua
  143. LOG : Lua , 1654610248160> 316 665 209> Loading: media/lua/shared/Util/LuaNet.lua
  144. LOG : Lua , 1654610248166> 316 665 215> Loading: media/lua/shared/Util/StringReplacer.lua
  145. LOG : Lua , 1654610248168> 316 665 217> Loading: media/lua/shared/Util/Vector2.lua
  146. LOG : Lua , 1654610248170> 316 665 219> Loading: media/lua/shared/VehicleZoneDefinition.lua
  147. LOG : Lua , 1654610248176> 316 665 225> Loading: media/lua/shared/a_requires.lua
  148. LOG : Lua , 1654610248178> 316 665 227> Loading: media/lua/shared/defines.lua
  149. LOG : Lua , 1654610248180> 316 665 229> Loading: media/lua/shared/iwbumstempmodelcompat.lua
  150. LOG : Lua , 1654610248182> 316 665 230> Loading: media/lua/shared/keyBinding.lua
  151. LOG : Lua , 1654610248188> 316 665 236> Loading: media/lua/shared/luautils.lua
  152. LOG : Lua , 1654610249511> 316 666 560> Loading: media/lua/server/BuildingObjects/ISAnvil.lua
  153. LOG : Lua , 1654610249515> 316 666 564> Loading: media/lua/server/BuildingObjects/ISBuildingObject.lua
  154. LOG : Lua , 1654610249522> 316 666 570> Loading: media/lua/server/BuildingObjects/ISBSFurnace.lua
  155. LOG : Lua , 1654610249525> 316 666 574> Loading: media/lua/server/BuildingObjects/ISBarbedWire.lua
  156. LOG : Lua , 1654610249530> 316 666 579> Loading: media/lua/server/BuildingObjects/ISBuildCursorMouse.lua
  157. LOG : Lua , 1654610249533> 316 666 581> Loading: media/lua/server/BuildingObjects/ISBuildUtil.lua
  158. LOG : Lua , 1654610249540> 316 666 588> Loading: media/lua/server/BuildingObjects/ISChopTreeCursor.lua
  159. LOG : Lua , 1654610249541> 316 666 590> Loading: media/lua/server/BuildingObjects/ISCleanBloodCursor.lua
  160. LOG : Lua , 1654610249543> 316 666 592> Loading: media/lua/server/BuildingObjects/ISCompost.lua
  161. LOG : Lua , 1654610249545> 316 666 594> Loading: media/lua/server/BuildingObjects/ISDestroyCursor.lua
  162. LOG : Lua , 1654610249549> 316 666 598> Loading: media/lua/server/BuildingObjects/ISDoubleDoor.lua
  163. LOG : Lua , 1654610249553> 316 666 602> Loading: media/lua/server/BuildingObjects/ISDoubleTileFurniture.lua
  164. LOG : Lua , 1654610249558> 316 666 607> Loading: media/lua/server/BuildingObjects/ISEmptyGraves.lua
  165. LOG : Lua , 1654610249562> 316 666 611> Loading: media/lua/server/BuildingObjects/ISLightSource.lua
  166. LOG : Lua , 1654610249564> 316 666 613> Loading: media/lua/server/BuildingObjects/ISMoveableCursor.lua
  167. LOG : Lua , 1654610249578> 316 666 626> Loading: media/lua/server/BuildingObjects/ISNaturalFloor.lua
  168. LOG : Lua , 1654610249582> 316 666 631> Loading: media/lua/server/BuildingObjects/ISPaintCursor.lua
  169. LOG : Lua , 1654610249587> 316 666 636> Loading: media/lua/server/BuildingObjects/ISPlace3DItemCursor.lua
  170. LOG : Lua , 1654610249592> 316 666 641> Loading: media/lua/server/BuildingObjects/ISRemovePlantCursor.lua
  171. LOG : Lua , 1654610249594> 316 666 643> Loading: media/lua/server/BuildingObjects/ISSelectCursor.lua
  172. LOG : Lua , 1654610249597> 316 666 645> Loading: media/lua/server/BuildingObjects/ISShovelGroundCursor.lua
  173. LOG : Lua , 1654610249599> 316 666 648> Loading: media/lua/server/BuildingObjects/ISSimpleFurniture.lua
  174. LOG : Lua , 1654610249602> 316 666 651> Loading: media/lua/server/BuildingObjects/ISWalkToCursor.lua
  175. LOG : Lua , 1654610249605> 316 666 653> Loading: media/lua/server/BuildingObjects/ISWoodenContainer.lua
  176. LOG : Lua , 1654610249607> 316 666 656> Loading: media/lua/server/BuildingObjects/ISWoodenDoor.lua
  177. LOG : Lua , 1654610249610> 316 666 658> Loading: media/lua/server/BuildingObjects/ISWoodenDoorFrame.lua
  178. LOG : Lua , 1654610249612> 316 666 661> Loading: media/lua/server/BuildingObjects/ISWoodenFloor.lua
  179. LOG : Lua , 1654610249614> 316 666 663> Loading: media/lua/server/BuildingObjects/ISWoodenStairs.lua
  180. LOG : Lua , 1654610249617> 316 666 666> Loading: media/lua/server/BuildingObjects/ISWoodenWall.lua
  181. LOG : Lua , 1654610249620> 316 666 669> Loading: media/lua/server/BuildingObjects/PaintingReference.lua
  182. LOG : Lua , 1654610249624> 316 666 673> Loading: media/lua/server/Camping/BuildingObjects/campingCampfire.lua
  183. LOG : Lua , 1654610249627> 316 666 675> Loading: media/lua/server/Camping/BuildingObjects/campingTent.lua
  184. LOG : Lua , 1654610249629> 316 666 678> Loading: media/lua/server/Camping/SCampfireGlobalObject.lua
  185. LOG : Lua , 1654610249633> 316 666 681> Loading: media/lua/server/Map/SGlobalObject.lua
  186. LOG : Lua , 1654610249635> 316 666 684> Loading: media/lua/server/Camping/SCampfireSystem.lua
  187. LOG : Lua , 1654610249638> 316 666 686> Loading: media/lua/server/Map/SGlobalObjectSystem.lua
  188. LOG : Lua , 1654610249655> 316 666 703> Loading: media/lua/server/Camping/SCampfireSystemCommands.lua
  189. LOG : Lua , 1654610249656> 316 666 705> Loading: media/lua/server/Camping/camping_fuel.lua
  190. LOG : Lua , 1654610249659> 316 666 707> Loading: media/lua/server/Camping/camping_tent.lua
  191. LOG : Lua , 1654610249664> 316 666 713> Loading: media/lua/server/Camping/camping_text.lua
  192. LOG : Lua , 1654610249668> 316 666 717> Loading: media/lua/server/ClientCommands.lua
  193. LOG : Lua , 1654610249683> 316 666 731> Loading: media/lua/server/Climate/ClimateMain.lua
  194. LOG : Lua , 1654610249686> 316 666 735> Loading: media/lua/server/Farming/BuildingObjects/ISFarmingCursor.lua
  195. LOG : Lua , 1654610249689> 316 666 738> Loading: media/lua/server/Farming/BuildingObjects/ISFarmingCursorMouse.lua
  196. LOG : Lua , 1654610249692> 316 666 740> Loading: media/lua/server/Farming/BuildingObjects/farmingPlot.lua
  197. LOG : Lua , 1654610249694> 316 666 742> Loading: media/lua/server/Farming/SFarmingSystem.lua
  198. LOG : Lua , 1654610249698> 316 666 746> Loading: media/lua/server/Farming/SPlantGlobalObject.lua
  199. LOG : Lua , 1654610249703> 316 666 751> Loading: media/lua/server/Farming/ScavengeDefinition.lua
  200. LOG : Lua , 1654610249708> 316 666 757> Loading: media/lua/server/Farming/farmingCommands.lua
  201. LOG : Lua , 1654610249711> 316 666 759> Loading: media/lua/server/Farming/farming_vegetableconf.lua
  202. LOG : Lua , 1654610249721> 316 666 770> Loading: media/lua/server/FireFighting/FireFighting.lua
  203. LOG : Lua , 1654610249723> 316 666 772> Loading: media/lua/server/FireFighting/ISExtinguishCursor.lua
  204. LOG : Lua , 1654610249727> 316 666 776> Loading: media/lua/server/Fishing/BuildingObjects/FishingNet.lua
  205. LOG : Lua , 1654610249730> 316 666 778> Loading: media/lua/server/Foraging/forageServer.lua
  206. LOG : Lua , 1654610249731> 316 666 780> Loading: media/lua/server/HealthSystem/HealthUpdate.lua
  207. LOG : Lua , 1654610249733> 316 666 782> Loading: media/lua/server/ISBuildingBlueprintManager.lua
  208. LOG : Lua , 1654610249735> 316 666 784> Loading: media/lua/server/ISCoordConversion.lua
  209. LOG : Lua , 1654610249737> 316 666 786> Loading: media/lua/server/ISObjectClickHandler.lua
  210. LOG : Lua , 1654610249742> 316 666 791> Loading: media/lua/server/Items/AcceptItemFunction.lua
  211. LOG : Lua , 1654610249743> 316 666 792> Loading: media/lua/server/Items/ApplianceOverlays.lua
  212. LOG : Lua , 1654610249749> 316 666 797> Loading: media/lua/server/Items/BentFences.lua
  213. LOG : Lua , 1654610249753> 316 666 802> Loading: media/lua/server/Items/BrokenFences.lua
  214. LOG : Lua , 1654610249770> 316 666 819> Loading: media/lua/server/Items/CounterOverlays.lua
  215. LOG : Lua , 1654610249775> 316 666 823> Loading: media/lua/server/Items/Distributions.lua
  216. LOG : Lua , 1654610249843> 316 666 892> Loading: media/lua/server/Items/FixturesOverlays.lua
  217. LOG : Lua , 1654610249846> 316 666 895> Loading: media/lua/server/Items/FloorStreetOverlays.lua
  218. LOG : Lua , 1654610249852> 316 666 901> Loading: media/lua/server/Items/FloorTileOverlays.lua
  219. LOG : Lua , 1654610249857> 316 666 905> Loading: media/lua/server/Items/FloorWoodOverlays.lua
  220. LOG : Lua , 1654610249860> 316 666 909> Loading: media/lua/server/Items/FurnitureOfficeOverlays.lua
  221. LOG : Lua , 1654610249863> 316 666 912> Loading: media/lua/server/Items/ItemBindingHandler.lua
  222. LOG : Lua , 1654610249866> 316 666 914> Loading: media/lua/server/Items/ItemPicker.lua
  223. LOG : Lua , 1654610249868> 316 666 917> Loading: media/lua/server/Items/ProceduralDistributions.lua
  224. LOG : Lua , 1654610249946> 316 666 995> Loading: media/lua/server/Items/ScriptItemInterface.lua
  225. LOG : Lua , 1654610249948> 316 666 997> Loading: media/lua/server/Items/SeatingOverlays.lua
  226. LOG : Lua , 1654610249954> 316 667 002> Loading: media/lua/server/Items/StorageOverlays.lua
  227. LOG : Lua , 1654610249958> 316 667 006> Loading: media/lua/server/Items/SuburbsDistributions.lua
  228. LOG : Lua , 1654610249962> 316 667 011> Loading: media/lua/server/Items/TileOverlays.lua
  229. LOG : Lua , 1654610249975> 316 667 023> Loading: media/lua/server/Items/TileOverlaysSmooth.lua
  230. LOG : Lua , 1654610249978> 316 667 026> Loading: media/lua/server/Items/WallsBrickOverlays.lua
  231. LOG : Lua , 1654610249987> 316 667 035> Loading: media/lua/server/Items/WorldFiller.lua
  232. LOG : Lua , 1654610249999> 316 667 047> Loading: media/lua/server/Map/MapObjects/MOBarricade.lua
  233. LOG : Lua , 1654610250008> 316 667 057> Loading: media/lua/server/Map/MapObjects/MOCampfire.lua
  234. LOG : Lua , 1654610250012> 316 667 061> Loading: media/lua/server/Map/MapObjects/MOCompost.lua
  235. LOG : Lua , 1654610250016> 316 667 064> Loading: media/lua/server/Map/MapObjects/MOFarming.lua
  236. LOG : Lua , 1654610250023> 316 667 072> Loading: media/lua/server/Map/MapObjects/MOGenerator.lua
  237. LOG : Lua , 1654610250025> 316 667 074> Loading: media/lua/server/Map/MapObjects/MOLampOnPillar.lua
  238. LOG : Lua , 1654610250028> 316 667 077> Loading: media/lua/server/Map/MapObjects/MOMetalDrum.lua
  239. LOG : Lua , 1654610250033> 316 667 081> Loading: media/lua/server/Map/MapObjects/MORainCollectorBarrel.lua
  240. LOG : Lua , 1654610250036> 316 667 085> Loading: media/lua/server/RainBarrel/BuildingObjects/RainCollectorBarrel.lua
  241. LOG : Lua , 1654610250041> 316 667 089> Loading: media/lua/server/Map/MapObjects/MORandomPottedPlant.lua
  242. LOG : Lua , 1654610250043> 316 667 092> Loading: media/lua/server/Map/MapObjects/MOTent.lua
  243. LOG : Lua , 1654610250046> 316 667 094> Loading: media/lua/server/Map/MapObjects/MOTrap.lua
  244. LOG : Lua , 1654610250048> 316 667 097> Loading: media/lua/server/Traps/TrapDefinition.lua
  245. LOG : Lua , 1654610250052> 316 667 101> Loading: media/lua/server/Traps/STrapSystem.lua
  246. LOG : Lua , 1654610250057> 316 667 106> Loading: media/lua/server/Map/MapObjects/MOWoodenWallFrame.lua
  247. LOG : Lua , 1654610250060> 316 667 109> Loading: media/lua/server/Map/MetaEnum.lua
  248. LOG : Lua , 1654610250063> 316 667 112> Loading: media/lua/server/MetalDrum/BuildingObjects/ISMetalDrum.lua
  249. LOG : Lua , 1654610250066> 316 667 115> Loading: media/lua/server/MetalDrum/SMetalDrumGlobalObject.lua
  250. LOG : Lua , 1654610250071> 316 667 120> Loading: media/lua/server/MetalDrum/SMetalDrumSystem.lua
  251. LOG : Lua , 1654610250075> 316 667 123> Loading: media/lua/server/Movers/ISBaseMover.lua
  252. LOG : Lua , 1654610250077> 316 667 126> Loading: media/lua/server/Movers/MoverStateMachine.lua
  253. LOG : Lua , 1654610250079> 316 667 128> Loading: media/lua/server/Movers/MoverStates/ISBaseState.lua
  254. LOG : Lua , 1654610250081> 316 667 131> Loading: media/lua/server/Movers/MoverStates/MoveToState.lua
  255. LOG : Lua , 1654610250085> 316 667 134> Loading: media/lua/server/Movers/Rabbit.lua
  256. LOG : Lua , 1654610250087> 316 667 136> Loading: media/lua/server/NPCs/SadisticAIDirector/SadisticMusicDirector.lua
  257. LOG : Lua , 1654610250092> 316 667 140> Loading: media/lua/server/NewSelectionSystem/GridSquareSelector.lua
  258. LOG : Lua , 1654610250094> 316 667 143> Loading: media/lua/server/Professions/Professions.lua
  259. LOG : Lua , 1654610250096> 316 667 145> Loading: media/lua/server/RainBarrel/SRainBarrelGlobalObject.lua
  260. LOG : Lua , 1654610250099> 316 667 148> Loading: media/lua/server/RainBarrel/SRainBarrelSystem.lua
  261. LOG : Lua , 1654610250102> 316 667 151> Loading: media/lua/server/Seasons/season.lua
  262. LOG : Lua , 1654610250106> 316 667 155> Loading: media/lua/server/Seasons/seasonProps.lua
  263. LOG : Lua , 1654610250111> 316 667 159> Loading: media/lua/server/Traps/BuildingObjects/TrapBO.lua
  264. LOG : Lua , 1654610250113> 316 667 162> Loading: media/lua/server/Traps/ISUI/ISTrapMenu.lua
  265. LOG : Lua , 1654610250116> 316 667 165> Loading: media/lua/server/Traps/STrapGlobalObject.lua
  266. LOG : Lua , 1654610250123> 316 667 171> Loading: media/lua/server/Traps/TrapRecipeCode.lua
  267. LOG : Lua , 1654610250124> 316 667 173> Loading: media/lua/server/Traps/trappingCommands.lua
  268. LOG : Lua , 1654610250127> 316 667 176> Loading: media/lua/server/TurnBased/TurnBasedMain.lua
  269. LOG : Lua , 1654610250129> 316 667 177> Loading: media/lua/server/TutorialHelperFunctions.lua
  270. LOG : Lua , 1654610250131> 316 667 180> Loading: media/lua/server/Vehicles/VehicleCommands.lua
  271. LOG : Lua , 1654610250138> 316 667 187> Loading: media/lua/server/Vehicles/VehicleDistributions.lua
  272. LOG : Lua , 1654610250148> 316 667 197> Loading: media/lua/server/Vehicles/Vehicles.lua
  273. LOG : Lua , 1654610250160> 316 667 208> Loading: media/lua/server/XpSystem/XPSystem_SkillBook.lua
  274. LOG : Lua , 1654610250162> 316 667 211> Loading: media/lua/server/XpSystem/XpSystem_text.lua
  275. LOG : Lua , 1654610250164> 316 667 213> Loading: media/lua/server/XpSystem/XpUpdate.lua
  276. LOG : Lua , 1654610250170> 316 667 218> Loading: media/lua/server/metazones/metazoneHandler.lua
  277. LOG : Lua , 1654610250175> 316 667 223> Loading: media/lua/server/radio/ISDynamicRadio.lua
  278. LOG : Lua , 1654610250178> 316 667 226> Loading: media/lua/server/radio/ISWeatherChannel.lua
  279. LOG : Lua , 1654610250184> 316 667 233> Loading: media/lua/server/recipecode.lua
  280. LOG : General , 1654610250196> 316 667 245> luaChecksum: d2ca074c69006a5c0bcc33204b213796
  281. LOG : Lua , 1654610250801> 316 667 850> Loading: Zomboid/Server/servertest_SandboxVars.lua
  282. LOG : General , 1654610250809> 316 667 858> writing G:\AMP\Instances\ProjectZomboid\project-zomboid\380870\.\Zomboid\Server\servertest_SandboxVars.lua
  283. LOG : Lua , 1654610250956> 316 668 005> Loading: Zomboid/Server/servertest_spawnregions.lua
  284. LOG : Lua , 1654610250962> 316 668 011> Loading: media/maps/Muldraugh, KY/spawnpoints.lua
  285. LOG : Lua , 1654610250971> 316 668 020> Loading: media/maps/Riverside, KY/spawnpoints.lua
  286. LOG : Lua , 1654610250977> 316 668 025> Loading: media/maps/Rosewood, KY/spawnpoints.lua
  287. LOG : Lua , 1654610250982> 316 668 030> Loading: media/maps/West Point, KY/spawnpoints.lua
  288. LOG : Network , 1654610251014> 316 668 062> Loading world...
  289. LOG : General , 1654610251030> 316 668 079> IsoMetaGrid.Create: begin scanning directories
  290. LOG : General , 1654610251031> 316 668 080> Looking in these map folders:
  291. LOG : General , 1654610251034> 316 668 082> G:\AMP\Instances\ProjectZomboid\project-zomboid\380870\media\maps\Rosewood, KY
  292. LOG : General , 1654610251035> 316 668 084> G:\AMP\Instances\ProjectZomboid\project-zomboid\380870\media\maps\Muldraugh, KY
  293. LOG : General , 1654610251036> 316 668 085> <End of map-folders list>
  294. LOG : General , 1654610251068> 316 668 116> IsoMetaGrid.Create: finished scanning directories in 0.037 seconds
  295. LOG : General , 1654610251069> 316 668 117> IsoMetaGrid.Create: begin loading
  296. LOG : General , 1654610252313> 316 669 362> tiledef: loading G:\AMP\Instances\ProjectZomboid\project-zomboid\380870\media\tiledefinitions.tiles
  297. LOG : General , 1654610252329> 316 669 378> tiledef: loading G:\AMP\Instances\ProjectZomboid\project-zomboid\380870\media\newtiledefinitions.tiles
  298. LOG : General , 1654610252461> 316 669 510> tiledef: loading G:\AMP\Instances\ProjectZomboid\project-zomboid\380870\media\tiledefinitions_erosion.tiles
  299. LOG : General , 1654610252466> 316 669 515> tiledef: loading G:\AMP\Instances\ProjectZomboid\project-zomboid\380870\media\tiledefinitions_apcom.tiles
  300. LOG : General , 1654610252467> 316 669 515> tiledef: loading G:\AMP\Instances\ProjectZomboid\project-zomboid\380870\media\tiledefinitions_overlays.tiles
  301. LOG : General , 1654610252472> 316 669 520> tiledef: loading G:\AMP\Instances\ProjectZomboid\project-zomboid\380870\media\tiledefinitions_noiseworks.patch.tiles
  302. LOG : General , 1654610252481> 316 669 530> tiledef: loading G:\AMP\Instances\ProjectZomboid\project-zomboid\380870\media\tiledefinitions.tiles
  303. LOG : General , 1654610252707> 316 669 756> tiledef: loading G:\AMP\Instances\ProjectZomboid\project-zomboid\380870\media\newtiledefinitions.tiles
  304. LOG : General , 1654610252943> 316 669 991> MOVABLES: E face defined more than once for group: (Bar Wall Bar) sheet = location_restaurant_bar_01
  305. LOG : General , 1654610252944> 316 669 992> MOVABLES: S face defined more than once for group: (Bar Wall Bar) sheet = location_restaurant_bar_01
  306. LOG : General , 1654610252944> 316 669 993> MOVABLES: E face defined more than once for group: (Left Bar Wall Bar) sheet = location_restaurant_bar_01
  307. LOG : General , 1654610252945> 316 669 993> MOVABLES: S face defined more than once for group: (Left Bar Wall Bar) sheet = location_restaurant_bar_01
  308. LOG : General , 1654610252945> 316 669 994> MOVABLES: E face defined more than once for group: (Right Bar Wall Bar) sheet = location_restaurant_bar_01
  309. LOG : General , 1654610252946> 316 669 994> MOVABLES: S face defined more than once for group: (Right Bar Wall Bar) sheet = location_restaurant_bar_01
  310. LOG : General , 1654610252946> 316 669 995> MOVABLES: E face defined more than once for group: (Bar Tap Antique) sheet = location_restaurant_bar_01
  311. LOG : General , 1654610252947> 316 669 995> MOVABLES: Object has too many faces defined for group: (Bar Counter) sheet = location_restaurant_bar_01
  312. LOG : General , 1654610252948> 316 669 996> MOVABLES: Object has too many faces defined for group: (Bar Corner Counter) sheet = location_restaurant_bar_01
  313. LOG : General , 1654610253042> 316 670 090> MOVABLES: Object has only one face defined for group: (Streetname Sign) sheet = street_decoration_01
  314. LOG : General , 1654610253043> 316 670 091> MOVABLES: Not all members have a valid face defined for group: (Streetname Sign) sheet = street_decoration_01
  315. LOG : General , 1654610253199> 316 670 248> MOVABLES: Object only has 3 sprites, _might_ have a error in settings, group: (Tattoo Parlor Sign) sheet = location_shop_accessories_genericsigns_01
  316. LOG : General , 1654610253200> 316 670 249> MOVABLES: Object only has 3 sprites, _might_ have a error in settings, group: (Bail Bonds Sign) sheet = location_shop_accessories_genericsigns_01
  317. LOG : General , 1654610253204> 316 670 253> MOVABLES: Object only has 3 sprites, _might_ have a error in settings, group: (Pony Roam-o Sign) sheet = signs_one-off_01
  318. LOG : General , 1654610253304> 316 670 352> MOVABLES: Not all members have a valid face defined for group: (Military Crate) sheet = location_military_generic_01
  319. LOG : General , 1654610253308> 316 670 356> MOVABLES: Object only has 3 sprites, _might_ have a error in settings, group: (The Glorious Spiffo) sheet = location_restaurant_spiffos_03
  320. LOG : General , 1654610253378> 316 670 427> tiledef: loading G:\AMP\Instances\ProjectZomboid\project-zomboid\380870\media\tiledefinitions_erosion.tiles
  321. LOG : General , 1654610253417> 316 670 465> duplicate texture d_floorleaves_1_0 ignore ID=524800, use ID=355000
  322. LOG : General , 1654610253418> 316 670 466> duplicate texture d_floorleaves_1_1 ignore ID=524801, use ID=355001
  323. LOG : General , 1654610253418> 316 670 467> duplicate texture d_floorleaves_1_2 ignore ID=524802, use ID=355002
  324. LOG : General , 1654610253419> 316 670 467> duplicate texture d_floorleaves_1_3 ignore ID=524803, use ID=355003
  325. LOG : General , 1654610253419> 316 670 468> duplicate texture d_floorleaves_1_4 ignore ID=524804, use ID=355004
  326. LOG : General , 1654610253420> 316 670 469> duplicate texture d_floorleaves_1_5 ignore ID=524805, use ID=355005
  327. LOG : General , 1654610253420> 316 670 469> duplicate texture d_floorleaves_1_6 ignore ID=524806, use ID=355006
  328. LOG : General , 1654610253421> 316 670 470> duplicate texture d_floorleaves_1_7 ignore ID=524807, use ID=355007
  329. LOG : General , 1654610253421> 316 670 470> duplicate texture d_floorleaves_1_8 ignore ID=524808, use ID=355008
  330. LOG : General , 1654610253422> 316 670 471> duplicate texture d_floorleaves_1_9 ignore ID=524809, use ID=355009
  331. LOG : General , 1654610253422> 316 670 471> duplicate texture d_floorleaves_1_10 ignore ID=524810, use ID=355010
  332. LOG : General , 1654610253423> 316 670 471> duplicate texture d_floorleaves_1_11 ignore ID=524811, use ID=355011
  333. LOG : General , 1654610253423> 316 670 472> duplicate texture d_floorleaves_1_12 ignore ID=524812, use ID=355012
  334. LOG : General , 1654610253423> 316 670 472> duplicate texture d_floorleaves_1_13 ignore ID=524813, use ID=355013
  335. LOG : General , 1654610253424> 316 670 472> duplicate texture d_floorleaves_1_14 ignore ID=524814, use ID=355014
  336. LOG : General , 1654610253424> 316 670 473> duplicate texture d_floorleaves_1_15 ignore ID=524815, use ID=355015
  337. LOG : General , 1654610253425> 316 670 473> duplicate texture d_floorleaves_1_16 ignore ID=524816, use ID=355016
  338. LOG : General , 1654610253425> 316 670 474> duplicate texture d_floorleaves_1_17 ignore ID=524817, use ID=355017
  339. LOG : General , 1654610253425> 316 670 474> duplicate texture d_floorleaves_1_18 ignore ID=524818, use ID=355018
  340. LOG : General , 1654610253426> 316 670 475> duplicate texture d_floorleaves_1_19 ignore ID=524819, use ID=355019
  341. LOG : General , 1654610253426> 316 670 475> duplicate texture d_floorleaves_1_20 ignore ID=524820, use ID=355020
  342. LOG : General , 1654610253427> 316 670 476> duplicate texture d_floorleaves_1_21 ignore ID=524821, use ID=355021
  343. LOG : General , 1654610253428> 316 670 476> duplicate texture d_floorleaves_1_22 ignore ID=524822, use ID=355022
  344. LOG : General , 1654610253428> 316 670 477> duplicate texture d_floorleaves_1_23 ignore ID=524823, use ID=355023
  345. LOG : General , 1654610253428> 316 670 477> duplicate texture d_floorleaves_1_24 ignore ID=524824, use ID=355024
  346. LOG : General , 1654610253429> 316 670 477> duplicate texture d_floorleaves_1_25 ignore ID=524825, use ID=355025
  347. LOG : General , 1654610253429> 316 670 477> duplicate texture d_floorleaves_1_26 ignore ID=524826, use ID=355026
  348. LOG : General , 1654610253429> 316 670 478> duplicate texture d_floorleaves_1_27 ignore ID=524827, use ID=355027
  349. LOG : General , 1654610253429> 316 670 478> duplicate texture d_floorleaves_1_28 ignore ID=524828, use ID=355028
  350. LOG : General , 1654610253430> 316 670 478> duplicate texture d_floorleaves_1_29 ignore ID=524829, use ID=355029
  351. LOG : General , 1654610253438> 316 670 486> duplicate texture d_floorleaves_1_30 ignore ID=524830, use ID=355030
  352. LOG : General , 1654610253438> 316 670 487> duplicate texture d_floorleaves_1_31 ignore ID=524831, use ID=355031
  353. LOG : General , 1654610253439> 316 670 487> duplicate texture d_generic_1_0 ignore ID=525312, use ID=356000
  354. LOG : General , 1654610253439> 316 670 488> duplicate texture d_generic_1_1 ignore ID=525313, use ID=356001
  355. LOG : General , 1654610253439> 316 670 488> duplicate texture d_generic_1_2 ignore ID=525314, use ID=356002
  356. LOG : General , 1654610253440> 316 670 488> duplicate texture d_generic_1_3 ignore ID=525315, use ID=356003
  357. LOG : General , 1654610253440> 316 670 489> duplicate texture d_generic_1_4 ignore ID=525316, use ID=356004
  358. LOG : General , 1654610253440> 316 670 489> duplicate texture d_generic_1_5 ignore ID=525317, use ID=356005
  359. LOG : General , 1654610253441> 316 670 489> duplicate texture d_generic_1_6 ignore ID=525318, use ID=356006
  360. LOG : General , 1654610253460> 316 670 509> duplicate texture d_generic_1_7 ignore ID=525319, use ID=356007
  361. LOG : General , 1654610253461> 316 670 509> duplicate texture d_generic_1_8 ignore ID=525320, use ID=356008
  362. LOG : General , 1654610253461> 316 670 510> duplicate texture d_generic_1_9 ignore ID=525321, use ID=356009
  363. LOG : General , 1654610253461> 316 670 510> duplicate texture d_generic_1_10 ignore ID=525322, use ID=356010
  364. LOG : General , 1654610253462> 316 670 510> duplicate texture d_generic_1_11 ignore ID=525323, use ID=356011
  365. LOG : General , 1654610253462> 316 670 511> duplicate texture d_generic_1_12 ignore ID=525324, use ID=356012
  366. LOG : General , 1654610253462> 316 670 511> duplicate texture d_generic_1_13 ignore ID=525325, use ID=356013
  367. LOG : General , 1654610253463> 316 670 511> duplicate texture d_generic_1_14 ignore ID=525326, use ID=356014
  368. LOG : General , 1654610253463> 316 670 512> duplicate texture d_generic_1_15 ignore ID=525327, use ID=356015
  369. LOG : General , 1654610253483> 316 670 532> duplicate texture d_generic_1_16 ignore ID=525328, use ID=356016
  370. LOG : General , 1654610253484> 316 670 533> duplicate texture d_generic_1_17 ignore ID=525329, use ID=356017
  371. LOG : General , 1654610253484> 316 670 533> duplicate texture d_generic_1_18 ignore ID=525330, use ID=356018
  372. LOG : General , 1654610253485> 316 670 533> duplicate texture d_generic_1_19 ignore ID=525331, use ID=356019
  373. LOG : General , 1654610253485> 316 670 534> duplicate texture d_generic_1_20 ignore ID=525332, use ID=356020
  374. LOG : General , 1654610253486> 316 670 534> duplicate texture d_generic_1_21 ignore ID=525333, use ID=356021
  375. LOG : General , 1654610253486> 316 670 535> duplicate texture d_generic_1_22 ignore ID=525334, use ID=356022
  376. LOG : General , 1654610253486> 316 670 535> duplicate texture d_generic_1_23 ignore ID=525335, use ID=356023
  377. LOG : General , 1654610253487> 316 670 535> duplicate texture d_generic_1_24 ignore ID=525336, use ID=356024
  378. LOG : General , 1654610253500> 316 670 549> duplicate texture d_generic_1_25 ignore ID=525337, use ID=356025
  379. LOG : General , 1654610253501> 316 670 550> duplicate texture d_generic_1_26 ignore ID=525338, use ID=356026
  380. LOG : General , 1654610253501> 316 670 550> duplicate texture d_generic_1_27 ignore ID=525339, use ID=356027
  381. LOG : General , 1654610253502> 316 670 550> duplicate texture d_generic_1_28 ignore ID=525340, use ID=356028
  382. LOG : General , 1654610253502> 316 670 551> duplicate texture d_generic_1_29 ignore ID=525341, use ID=356029
  383. LOG : General , 1654610253502> 316 670 551> duplicate texture d_generic_1_30 ignore ID=525342, use ID=356030
  384. LOG : General , 1654610253503> 316 670 551> duplicate texture d_generic_1_31 ignore ID=525343, use ID=356031
  385. LOG : General , 1654610253503> 316 670 552> duplicate texture d_generic_1_32 ignore ID=525344, use ID=356032
  386. LOG : General , 1654610253504> 316 670 552> duplicate texture d_generic_1_33 ignore ID=525345, use ID=356033
  387. LOG : General , 1654610253519> 316 670 568> duplicate texture d_generic_1_34 ignore ID=525346, use ID=356034
  388. LOG : General , 1654610253520> 316 670 568> duplicate texture d_generic_1_35 ignore ID=525347, use ID=356035
  389. LOG : General , 1654610253520> 316 670 569> duplicate texture d_generic_1_36 ignore ID=525348, use ID=356036
  390. LOG : General , 1654610253520> 316 670 569> duplicate texture d_generic_1_37 ignore ID=525349, use ID=356037
  391. LOG : General , 1654610253521> 316 670 570> duplicate texture d_generic_1_38 ignore ID=525350, use ID=356038
  392. LOG : General , 1654610253521> 316 670 570> duplicate texture d_generic_1_39 ignore ID=525351, use ID=356039
  393. LOG : General , 1654610253522> 316 670 570> duplicate texture d_generic_1_40 ignore ID=525352, use ID=356040
  394. LOG : General , 1654610253522> 316 670 571> duplicate texture d_generic_1_41 ignore ID=525353, use ID=356041
  395. LOG : General , 1654610253522> 316 670 571> duplicate texture d_generic_1_42 ignore ID=525354, use ID=356042
  396. LOG : General , 1654610253537> 316 670 586> duplicate texture d_generic_1_43 ignore ID=525355, use ID=356043
  397. LOG : General , 1654610253538> 316 670 586> duplicate texture d_generic_1_44 ignore ID=525356, use ID=356044
  398. LOG : General , 1654610253538> 316 670 587> duplicate texture d_generic_1_45 ignore ID=525357, use ID=356045
  399. LOG : General , 1654610253538> 316 670 587> duplicate texture d_generic_1_46 ignore ID=525358, use ID=356046
  400. LOG : General , 1654610253539> 316 670 587> duplicate texture d_generic_1_47 ignore ID=525359, use ID=356047
  401. LOG : General , 1654610253539> 316 670 588> duplicate texture d_generic_1_48 ignore ID=525360, use ID=356048
  402. LOG : General , 1654610253540> 316 670 588> duplicate texture d_generic_1_49 ignore ID=525361, use ID=356049
  403. LOG : General , 1654610253540> 316 670 589> duplicate texture d_generic_1_50 ignore ID=525362, use ID=356050
  404. LOG : General , 1654610253559> 316 670 608> duplicate texture d_generic_1_51 ignore ID=525363, use ID=356051
  405. LOG : General , 1654610253560> 316 670 608> duplicate texture d_generic_1_52 ignore ID=525364, use ID=356052
  406. LOG : General , 1654610253560> 316 670 609> duplicate texture d_generic_1_53 ignore ID=525365, use ID=356053
  407. LOG : General , 1654610253561> 316 670 610> duplicate texture d_generic_1_54 ignore ID=525366, use ID=356054
  408. LOG : General , 1654610253561> 316 670 610> duplicate texture d_generic_1_55 ignore ID=525367, use ID=356055
  409. LOG : General , 1654610253562> 316 670 610> duplicate texture d_generic_1_56 ignore ID=525368, use ID=356056
  410. LOG : General , 1654610253562> 316 670 611> duplicate texture d_generic_1_57 ignore ID=525369, use ID=356057
  411. LOG : General , 1654610253562> 316 670 611> duplicate texture d_generic_1_58 ignore ID=525370, use ID=356058
  412. LOG : General , 1654610253563> 316 670 611> duplicate texture d_generic_1_59 ignore ID=525371, use ID=356059
  413. LOG : General , 1654610253580> 316 670 629> duplicate texture d_generic_1_60 ignore ID=525372, use ID=356060
  414. LOG : General , 1654610253583> 316 670 631> duplicate texture d_generic_1_61 ignore ID=525373, use ID=356061
  415. LOG : General , 1654610253583> 316 670 632> duplicate texture d_generic_1_62 ignore ID=525374, use ID=356062
  416. LOG : General , 1654610253584> 316 670 632> duplicate texture d_generic_1_63 ignore ID=525375, use ID=356063
  417. LOG : General , 1654610253584> 316 670 633> duplicate texture d_generic_1_64 ignore ID=525376, use ID=356064
  418. LOG : General , 1654610253584> 316 670 633> duplicate texture d_generic_1_65 ignore ID=525377, use ID=356065
  419. LOG : General , 1654610253585> 316 670 633> duplicate texture d_generic_1_66 ignore ID=525378, use ID=356066
  420. LOG : General , 1654610253585> 316 670 634> duplicate texture d_generic_1_67 ignore ID=525379, use ID=356067
  421. LOG : General , 1654610253586> 316 670 634> duplicate texture d_generic_1_68 ignore ID=525380, use ID=356068
  422. LOG : General , 1654610253603> 316 670 652> duplicate texture d_generic_1_69 ignore ID=525381, use ID=356069
  423. LOG : General , 1654610253604> 316 670 652> duplicate texture d_generic_1_70 ignore ID=525382, use ID=356070
  424. LOG : General , 1654610253604> 316 670 653> duplicate texture d_generic_1_71 ignore ID=525383, use ID=356071
  425. LOG : General , 1654610253605> 316 670 653> duplicate texture d_generic_1_72 ignore ID=525384, use ID=356072
  426. LOG : General , 1654610253605> 316 670 654> duplicate texture d_generic_1_73 ignore ID=525385, use ID=356073
  427. LOG : General , 1654610253605> 316 670 654> duplicate texture d_generic_1_74 ignore ID=525386, use ID=356074
  428. LOG : General , 1654610253606> 316 670 654> duplicate texture d_generic_1_75 ignore ID=525387, use ID=356075
  429. LOG : General , 1654610253606> 316 670 655> duplicate texture d_generic_1_76 ignore ID=525388, use ID=356076
  430. LOG : General , 1654610253606> 316 670 655> duplicate texture d_generic_1_77 ignore ID=525389, use ID=356077
  431. LOG : General , 1654610253625> 316 670 673> duplicate texture d_generic_1_78 ignore ID=525390, use ID=356078
  432. LOG : General , 1654610253625> 316 670 674> duplicate texture d_generic_1_79 ignore ID=525391, use ID=356079
  433. LOG : General , 1654610253626> 316 670 674> duplicate texture d_generic_1_80 ignore ID=525392, use ID=356080
  434. LOG : General , 1654610253626> 316 670 675> duplicate texture d_generic_1_81 ignore ID=525393, use ID=356081
  435. LOG : General , 1654610253626> 316 670 675> duplicate texture d_generic_1_82 ignore ID=525394, use ID=356082
  436. LOG : General , 1654610253627> 316 670 675> duplicate texture d_generic_1_83 ignore ID=525395, use ID=356083
  437. LOG : General , 1654610253627> 316 670 676> duplicate texture d_generic_1_84 ignore ID=525396, use ID=356084
  438. LOG : General , 1654610253627> 316 670 676> duplicate texture d_generic_1_85 ignore ID=525397, use ID=356085
  439. LOG : General , 1654610253628> 316 670 676> duplicate texture d_generic_1_86 ignore ID=525398, use ID=356086
  440. LOG : General , 1654610253642> 316 670 690> duplicate texture d_generic_1_87 ignore ID=525399, use ID=356087
  441. LOG : General , 1654610253642> 316 670 691> duplicate texture d_generic_1_88 ignore ID=525400, use ID=356088
  442. LOG : General , 1654610253642> 316 670 691> duplicate texture d_generic_1_89 ignore ID=525401, use ID=356089
  443. LOG : General , 1654610253643> 316 670 691> duplicate texture d_generic_1_90 ignore ID=525402, use ID=356090
  444. LOG : General , 1654610253643> 316 670 692> duplicate texture d_generic_1_91 ignore ID=525403, use ID=356091
  445. LOG : General , 1654610253644> 316 670 692> duplicate texture d_generic_1_92 ignore ID=525404, use ID=356092
  446. LOG : General , 1654610253644> 316 670 693> duplicate texture d_generic_1_93 ignore ID=525405, use ID=356093
  447. LOG : General , 1654610253645> 316 670 693> duplicate texture d_generic_1_94 ignore ID=525406, use ID=356094
  448. LOG : General , 1654610253645> 316 670 694> duplicate texture d_generic_1_95 ignore ID=525407, use ID=356095
  449. LOG : General , 1654610253663> 316 670 712> duplicate texture d_generic_1_96 ignore ID=525408, use ID=356096
  450. LOG : General , 1654610253664> 316 670 712> duplicate texture d_generic_1_97 ignore ID=525409, use ID=356097
  451. LOG : General , 1654610253664> 316 670 713> duplicate texture d_generic_1_98 ignore ID=525410, use ID=356098
  452. LOG : General , 1654610253665> 316 670 713> duplicate texture d_generic_1_99 ignore ID=525411, use ID=356099
  453. LOG : General , 1654610253665> 316 670 713> duplicate texture d_generic_1_100 ignore ID=525412, use ID=356100
  454. LOG : General , 1654610253665> 316 670 714> duplicate texture d_generic_1_101 ignore ID=525413, use ID=356101
  455. LOG : General , 1654610253665> 316 670 714> duplicate texture d_generic_1_102 ignore ID=525414, use ID=356102
  456. LOG : General , 1654610253666> 316 670 714> duplicate texture d_generic_1_103 ignore ID=525415, use ID=356103
  457. LOG : General , 1654610253666> 316 670 715> duplicate texture d_generic_1_104 ignore ID=525416, use ID=356104
  458. LOG : General , 1654610253683> 316 670 731> duplicate texture d_generic_1_105 ignore ID=525417, use ID=356105
  459. LOG : General , 1654610253683> 316 670 732> duplicate texture d_generic_1_106 ignore ID=525418, use ID=356106
  460. LOG : General , 1654610253683> 316 670 732> duplicate texture d_generic_1_107 ignore ID=525419, use ID=356107
  461. LOG : General , 1654610253684> 316 670 732> duplicate texture d_generic_1_108 ignore ID=525420, use ID=356108
  462. LOG : General , 1654610253684> 316 670 732> duplicate texture d_generic_1_109 ignore ID=525421, use ID=356109
  463. LOG : General , 1654610253684> 316 670 733> duplicate texture d_generic_1_110 ignore ID=525422, use ID=356110
  464. LOG : General , 1654610253684> 316 670 733> duplicate texture d_generic_1_111 ignore ID=525423, use ID=356111
  465. LOG : General , 1654610253685> 316 670 733> duplicate texture d_generic_1_112 ignore ID=525424, use ID=356112
  466. LOG : General , 1654610253685> 316 670 733> duplicate texture d_generic_1_113 ignore ID=525425, use ID=356113
  467. LOG : General , 1654610253702> 316 670 750> duplicate texture d_generic_1_114 ignore ID=525426, use ID=356114
  468. LOG : General , 1654610253702> 316 670 751> duplicate texture d_generic_1_115 ignore ID=525427, use ID=356115
  469. LOG : General , 1654610253703> 316 670 751> duplicate texture d_generic_1_116 ignore ID=525428, use ID=356116
  470. LOG : General , 1654610253703> 316 670 752> duplicate texture d_generic_1_117 ignore ID=525429, use ID=356117
  471. LOG : General , 1654610253703> 316 670 752> duplicate texture d_generic_1_118 ignore ID=525430, use ID=356118
  472. LOG : General , 1654610253704> 316 670 752> duplicate texture d_generic_1_119 ignore ID=525431, use ID=356119
  473. LOG : General , 1654610253704> 316 670 752> duplicate texture d_generic_1_120 ignore ID=525432, use ID=356120
  474. LOG : General , 1654610253704> 316 670 753> duplicate texture d_generic_1_121 ignore ID=525433, use ID=356121
  475. LOG : General , 1654610253704> 316 670 753> duplicate texture d_generic_1_122 ignore ID=525434, use ID=356122
  476. LOG : General , 1654610253722> 316 670 771> duplicate texture d_generic_1_123 ignore ID=525435, use ID=356123
  477. LOG : General , 1654610253723> 316 670 771> duplicate texture d_generic_1_124 ignore ID=525436, use ID=356124
  478. LOG : General , 1654610253723> 316 670 772> duplicate texture d_generic_1_125 ignore ID=525437, use ID=356125
  479. LOG : General , 1654610253724> 316 670 772> duplicate texture d_generic_1_126 ignore ID=525438, use ID=356126
  480. LOG : General , 1654610253724> 316 670 772> duplicate texture d_generic_1_127 ignore ID=525439, use ID=356127
  481. LOG : General , 1654610253724> 316 670 773> duplicate texture d_generic_1_128 ignore ID=525440, use ID=356128
  482. LOG : General , 1654610253724> 316 670 773> duplicate texture d_generic_1_129 ignore ID=525441, use ID=356129
  483. LOG : General , 1654610253725> 316 670 773> duplicate texture d_generic_1_130 ignore ID=525442, use ID=356130
  484. LOG : General , 1654610253743> 316 670 792> duplicate texture d_generic_1_131 ignore ID=525443, use ID=356131
  485. LOG : General , 1654610253743> 316 670 792> duplicate texture d_generic_1_132 ignore ID=525444, use ID=356132
  486. LOG : General , 1654610253744> 316 670 792> duplicate texture d_generic_1_133 ignore ID=525445, use ID=356133
  487. LOG : General , 1654610253744> 316 670 792> duplicate texture d_generic_1_134 ignore ID=525446, use ID=356134
  488. LOG : General , 1654610253744> 316 670 793> duplicate texture d_generic_1_135 ignore ID=525447, use ID=356135
  489. LOG : General , 1654610253744> 316 670 793> duplicate texture d_generic_1_136 ignore ID=525448, use ID=356136
  490. LOG : General , 1654610253745> 316 670 793> duplicate texture d_generic_1_137 ignore ID=525449, use ID=356137
  491. LOG : General , 1654610253745> 316 670 794> duplicate texture d_generic_1_138 ignore ID=525450, use ID=356138
  492. LOG : General , 1654610253745> 316 670 794> duplicate texture d_generic_1_139 ignore ID=525451, use ID=356139
  493. LOG : General , 1654610253761> 316 670 809> duplicate texture d_generic_1_140 ignore ID=525452, use ID=356140
  494. LOG : General , 1654610253761> 316 670 810> duplicate texture d_generic_1_141 ignore ID=525453, use ID=356141
  495. LOG : General , 1654610253762> 316 670 810> duplicate texture d_generic_1_142 ignore ID=525454, use ID=356142
  496. LOG : General , 1654610253762> 316 670 810> duplicate texture d_generic_1_143 ignore ID=525455, use ID=356143
  497. LOG : General , 1654610253762> 316 670 811> duplicate texture d_generic_1_144 ignore ID=525456, use ID=356144
  498. LOG : General , 1654610253762> 316 670 811> duplicate texture d_generic_1_145 ignore ID=525457, use ID=356145
  499. LOG : General , 1654610253763> 316 670 811> duplicate texture d_generic_1_146 ignore ID=525458, use ID=356146
  500. LOG : General , 1654610253763> 316 670 812> duplicate texture d_generic_1_147 ignore ID=525459, use ID=356147
  501. LOG : General , 1654610253763> 316 670 812> duplicate texture d_generic_1_148 ignore ID=525460, use ID=356148
  502. LOG : General , 1654610253779> 316 670 828> duplicate texture d_generic_1_149 ignore ID=525461, use ID=356149
  503. LOG : General , 1654610253780> 316 670 828> duplicate texture d_generic_1_150 ignore ID=525462, use ID=356150
  504. LOG : General , 1654610253780> 316 670 829> duplicate texture d_generic_1_151 ignore ID=525463, use ID=356151
  505. LOG : General , 1654610253780> 316 670 829> duplicate texture d_generic_1_152 ignore ID=525464, use ID=356152
  506. LOG : General , 1654610253781> 316 670 829> duplicate texture d_generic_1_153 ignore ID=525465, use ID=356153
  507. LOG : General , 1654610253781> 316 670 830> duplicate texture d_generic_1_154 ignore ID=525466, use ID=356154
  508. LOG : General , 1654610253781> 316 670 830> duplicate texture d_generic_1_155 ignore ID=525467, use ID=356155
  509. LOG : General , 1654610253781> 316 670 830> duplicate texture d_generic_1_156 ignore ID=525468, use ID=356156
  510. LOG : General , 1654610253782> 316 670 830> duplicate texture d_generic_1_157 ignore ID=525469, use ID=356157
  511. LOG : General , 1654610253797> 316 670 845> duplicate texture d_generic_1_158 ignore ID=525470, use ID=356158
  512. LOG : General , 1654610253797> 316 670 846> duplicate texture d_generic_1_159 ignore ID=525471, use ID=356159
  513. LOG : General , 1654610253798> 316 670 846> duplicate texture d_plants_1_0 ignore ID=525824, use ID=357000
  514. LOG : General , 1654610253798> 316 670 847> duplicate texture d_plants_1_1 ignore ID=525825, use ID=357001
  515. LOG : General , 1654610253799> 316 670 847> duplicate texture d_plants_1_2 ignore ID=525826, use ID=357002
  516. LOG : General , 1654610253799> 316 670 847> duplicate texture d_plants_1_3 ignore ID=525827, use ID=357003
  517. LOG : General , 1654610253799> 316 670 848> duplicate texture d_plants_1_4 ignore ID=525828, use ID=357004
  518. LOG : General , 1654610253799> 316 670 848> duplicate texture d_plants_1_5 ignore ID=525829, use ID=357005
  519. LOG : General , 1654610253800> 316 670 848> duplicate texture d_plants_1_6 ignore ID=525830, use ID=357006
  520. LOG : General , 1654610253819> 316 670 868> duplicate texture d_plants_1_7 ignore ID=525831, use ID=357007
  521. LOG : General , 1654610253819> 316 670 868> duplicate texture d_plants_1_8 ignore ID=525832, use ID=357008
  522. LOG : General , 1654610253820> 316 670 868> duplicate texture d_plants_1_9 ignore ID=525833, use ID=357009
  523. LOG : General , 1654610253820> 316 670 869> duplicate texture d_plants_1_10 ignore ID=525834, use ID=357010
  524. LOG : General , 1654610253820> 316 670 869> duplicate texture d_plants_1_11 ignore ID=525835, use ID=357011
  525. LOG : General , 1654610253821> 316 670 869> duplicate texture d_plants_1_12 ignore ID=525836, use ID=357012
  526. LOG : General , 1654610253821> 316 670 870> duplicate texture d_plants_1_13 ignore ID=525837, use ID=357013
  527. LOG : General , 1654610253821> 316 670 870> duplicate texture d_plants_1_14 ignore ID=525838, use ID=357014
  528. LOG : General , 1654610253822> 316 670 870> duplicate texture d_plants_1_15 ignore ID=525839, use ID=357015
  529. LOG : General , 1654610253841> 316 670 890> duplicate texture d_plants_1_16 ignore ID=525840, use ID=357016
  530. LOG : General , 1654610253842> 316 670 891> duplicate texture d_plants_1_17 ignore ID=525841, use ID=357017
  531. LOG : General , 1654610253843> 316 670 892> duplicate texture d_plants_1_18 ignore ID=525842, use ID=357018
  532. LOG : General , 1654610253844> 316 670 892> duplicate texture d_plants_1_19 ignore ID=525843, use ID=357019
  533. LOG : General , 1654610253844> 316 670 893> duplicate texture d_plants_1_20 ignore ID=525844, use ID=357020
  534. LOG : General , 1654610253844> 316 670 893> duplicate texture d_plants_1_21 ignore ID=525845, use ID=357021
  535. LOG : General , 1654610253845> 316 670 893> duplicate texture d_plants_1_22 ignore ID=525846, use ID=357022
  536. LOG : General , 1654610253845> 316 670 894> duplicate texture d_plants_1_23 ignore ID=525847, use ID=357023
  537. LOG : General , 1654610253846> 316 670 895> duplicate texture d_plants_1_24 ignore ID=525848, use ID=357024
  538. LOG : General , 1654610253861> 316 670 910> duplicate texture d_plants_1_25 ignore ID=525849, use ID=357025
  539. LOG : General , 1654610253862> 316 670 910> duplicate texture d_plants_1_26 ignore ID=525850, use ID=357026
  540. LOG : General , 1654610253862> 316 670 911> duplicate texture d_plants_1_27 ignore ID=525851, use ID=357027
  541. LOG : General , 1654610253862> 316 670 911> duplicate texture d_plants_1_28 ignore ID=525852, use ID=357028
  542. LOG : General , 1654610253863> 316 670 911> duplicate texture d_plants_1_29 ignore ID=525853, use ID=357029
  543. LOG : General , 1654610253863> 316 670 911> duplicate texture d_plants_1_30 ignore ID=525854, use ID=357030
  544. LOG : General , 1654610253863> 316 670 912> duplicate texture d_plants_1_31 ignore ID=525855, use ID=357031
  545. LOG : General , 1654610253863> 316 670 912> duplicate texture d_plants_1_32 ignore ID=525856, use ID=357032
  546. LOG : General , 1654610253864> 316 670 912> duplicate texture d_plants_1_33 ignore ID=525857, use ID=357033
  547. LOG : General , 1654610253882> 316 670 931> duplicate texture d_plants_1_34 ignore ID=525858, use ID=357034
  548. LOG : General , 1654610253882> 316 670 931> duplicate texture d_plants_1_35 ignore ID=525859, use ID=357035
  549. LOG : General , 1654610253883> 316 670 931> duplicate texture d_plants_1_36 ignore ID=525860, use ID=357036
  550. LOG : General , 1654610253883> 316 670 932> duplicate texture d_plants_1_37 ignore ID=525861, use ID=357037
  551. LOG : General , 1654610253884> 316 670 933> duplicate texture d_plants_1_38 ignore ID=525862, use ID=357038
  552. LOG : General , 1654610253884> 316 670 933> duplicate texture d_plants_1_39 ignore ID=525863, use ID=357039
  553. LOG : General , 1654610253885> 316 670 933> duplicate texture d_plants_1_40 ignore ID=525864, use ID=357040
  554. LOG : General , 1654610253885> 316 670 934> duplicate texture d_plants_1_41 ignore ID=525865, use ID=357041
  555. LOG : General , 1654610253886> 316 670 934> duplicate texture d_plants_1_42 ignore ID=525866, use ID=357042
  556. LOG : General , 1654610253905> 316 670 954> duplicate texture d_plants_1_43 ignore ID=525867, use ID=357043
  557. LOG : General , 1654610253906> 316 670 954> duplicate texture d_plants_1_44 ignore ID=525868, use ID=357044
  558. LOG : General , 1654610253906> 316 670 955> duplicate texture d_plants_1_45 ignore ID=525869, use ID=357045
  559. LOG : General , 1654610253907> 316 670 955> duplicate texture d_plants_1_46 ignore ID=525870, use ID=357046
  560. LOG : General , 1654610253907> 316 670 955> duplicate texture d_plants_1_47 ignore ID=525871, use ID=357047
  561. LOG : General , 1654610253907> 316 670 956> duplicate texture d_plants_1_48 ignore ID=525872, use ID=357048
  562. LOG : General , 1654610253907> 316 670 956> duplicate texture d_plants_1_49 ignore ID=525873, use ID=357049
  563. LOG : General , 1654610253908> 316 670 956> duplicate texture d_plants_1_50 ignore ID=525874, use ID=357050
  564. LOG : General , 1654610253916> 316 670 965> duplicate texture d_plants_1_51 ignore ID=525875, use ID=357051
  565. LOG : General , 1654610253938> 316 670 987> duplicate texture d_plants_1_52 ignore ID=525876, use ID=357052
  566. LOG : General , 1654610253939> 316 670 987> duplicate texture d_plants_1_53 ignore ID=525877, use ID=357053
  567. LOG : General , 1654610253939> 316 670 988> duplicate texture d_plants_1_54 ignore ID=525878, use ID=357054
  568. LOG : General , 1654610253940> 316 670 988> duplicate texture d_plants_1_55 ignore ID=525879, use ID=357055
  569. LOG : General , 1654610253940> 316 670 988> duplicate texture d_plants_1_56 ignore ID=525880, use ID=357056
  570. LOG : General , 1654610253940> 316 670 989> duplicate texture d_plants_1_57 ignore ID=525881, use ID=357057
  571. LOG : General , 1654610253940> 316 670 989> duplicate texture d_plants_1_58 ignore ID=525882, use ID=357058
  572. LOG : General , 1654610253941> 316 670 989> duplicate texture d_plants_1_59 ignore ID=525883, use ID=357059
  573. LOG : General , 1654610253941> 316 670 990> duplicate texture d_plants_1_60 ignore ID=525884, use ID=357060
  574. LOG : General , 1654610253960> 316 671 009> duplicate texture d_plants_1_61 ignore ID=525885, use ID=357061
  575. LOG : General , 1654610253960> 316 671 009> duplicate texture d_plants_1_62 ignore ID=525886, use ID=357062
  576. LOG : General , 1654610253961> 316 671 009> duplicate texture d_plants_1_63 ignore ID=525887, use ID=357063
  577. LOG : General , 1654610253961> 316 671 010> duplicate texture d_streetcracks_1_0 ignore ID=526336, use ID=358000
  578. LOG : General , 1654610253961> 316 671 010> duplicate texture d_streetcracks_1_1 ignore ID=526337, use ID=358001
  579. LOG : General , 1654610253962> 316 671 010> duplicate texture d_streetcracks_1_2 ignore ID=526338, use ID=358002
  580. LOG : General , 1654610253962> 316 671 010> duplicate texture d_streetcracks_1_3 ignore ID=526339, use ID=358003
  581. LOG : General , 1654610253962> 316 671 011> duplicate texture d_streetcracks_1_4 ignore ID=526340, use ID=358004
  582. LOG : General , 1654610253962> 316 671 011> duplicate texture d_streetcracks_1_5 ignore ID=526341, use ID=358005
  583. LOG : General , 1654610253979> 316 671 028> duplicate texture d_streetcracks_1_6 ignore ID=526342, use ID=358006
  584. LOG : General , 1654610253980> 316 671 028> duplicate texture d_streetcracks_1_7 ignore ID=526343, use ID=358007
  585. LOG : General , 1654610253980> 316 671 029> duplicate texture d_streetcracks_1_8 ignore ID=526344, use ID=358008
  586. LOG : General , 1654610253980> 316 671 029> duplicate texture d_streetcracks_1_9 ignore ID=526345, use ID=358009
  587. LOG : General , 1654610253981> 316 671 029> duplicate texture d_streetcracks_1_10 ignore ID=526346, use ID=358010
  588. LOG : General , 1654610253981> 316 671 030> duplicate texture d_streetcracks_1_11 ignore ID=526347, use ID=358011
  589. LOG : General , 1654610253981> 316 671 030> duplicate texture d_streetcracks_1_12 ignore ID=526348, use ID=358012
  590. LOG : General , 1654610253982> 316 671 030> duplicate texture d_streetcracks_1_13 ignore ID=526349, use ID=358013
  591. LOG : General , 1654610253998> 316 671 046> duplicate texture d_streetcracks_1_14 ignore ID=526350, use ID=358014
  592. LOG : General , 1654610253998> 316 671 047> duplicate texture d_streetcracks_1_15 ignore ID=526351, use ID=358015
  593. LOG : General , 1654610253998> 316 671 047> duplicate texture d_streetcracks_1_16 ignore ID=526352, use ID=358016
  594. LOG : General , 1654610253999> 316 671 047> duplicate texture d_streetcracks_1_17 ignore ID=526353, use ID=358017
  595. LOG : General , 1654610253999> 316 671 048> duplicate texture d_streetcracks_1_18 ignore ID=526354, use ID=358018
  596. LOG : General , 1654610253999> 316 671 048> duplicate texture d_streetcracks_1_19 ignore ID=526355, use ID=358019
  597. LOG : General , 1654610253999> 316 671 048> duplicate texture d_streetcracks_1_20 ignore ID=526356, use ID=358020
  598. LOG : General , 1654610254000> 316 671 048> duplicate texture d_streetcracks_1_21 ignore ID=526357, use ID=358021
  599. LOG : General , 1654610254000> 316 671 049> duplicate texture d_streetcracks_1_22 ignore ID=526358, use ID=358022
  600. LOG : General , 1654610254014> 316 671 063> duplicate texture d_streetcracks_1_23 ignore ID=526359, use ID=358023
  601. LOG : General , 1654610254015> 316 671 063> duplicate texture d_streetcracks_1_24 ignore ID=526360, use ID=358024
  602. LOG : General , 1654610254015> 316 671 064> duplicate texture d_streetcracks_1_25 ignore ID=526361, use ID=358025
  603. LOG : General , 1654610254015> 316 671 064> duplicate texture d_streetcracks_1_26 ignore ID=526362, use ID=358026
  604. LOG : General , 1654610254016> 316 671 064> duplicate texture d_streetcracks_1_27 ignore ID=526363, use ID=358027
  605. LOG : General , 1654610254016> 316 671 064> duplicate texture d_streetcracks_1_28 ignore ID=526364, use ID=358028
  606. LOG : General , 1654610254016> 316 671 065> duplicate texture d_streetcracks_1_29 ignore ID=526365, use ID=358029
  607. LOG : General , 1654610254016> 316 671 065> duplicate texture d_streetcracks_1_30 ignore ID=526366, use ID=358030
  608. LOG : General , 1654610254034> 316 671 082> duplicate texture d_streetcracks_1_31 ignore ID=526367, use ID=358031
  609. LOG : General , 1654610254034> 316 671 083> duplicate texture d_streetcracks_1_32 ignore ID=526368, use ID=358032
  610. LOG : General , 1654610254035> 316 671 084> duplicate texture d_streetcracks_1_33 ignore ID=526369, use ID=358033
  611. LOG : General , 1654610254036> 316 671 084> duplicate texture d_streetcracks_1_34 ignore ID=526370, use ID=358034
  612. LOG : General , 1654610254036> 316 671 084> duplicate texture d_streetcracks_1_35 ignore ID=526371, use ID=358035
  613. LOG : General , 1654610254036> 316 671 085> duplicate texture d_streetcracks_1_36 ignore ID=526372, use ID=358036
  614. LOG : General , 1654610254037> 316 671 086> duplicate texture d_streetcracks_1_37 ignore ID=526373, use ID=358037
  615. LOG : General , 1654610254037> 316 671 086> duplicate texture d_streetcracks_1_38 ignore ID=526374, use ID=358038
  616. LOG : General , 1654610254038> 316 671 086> duplicate texture d_streetcracks_1_39 ignore ID=526375, use ID=358039
  617. LOG : General , 1654610254052> 316 671 101> duplicate texture d_streetcracks_1_40 ignore ID=526376, use ID=358040
  618. LOG : General , 1654610254053> 316 671 101> duplicate texture d_streetcracks_1_41 ignore ID=526377, use ID=358041
  619. LOG : General , 1654610254053> 316 671 102> duplicate texture d_streetcracks_1_42 ignore ID=526378, use ID=358042
  620. LOG : General , 1654610254053> 316 671 102> duplicate texture d_streetcracks_1_43 ignore ID=526379, use ID=358043
  621. LOG : General , 1654610254054> 316 671 103> duplicate texture d_streetcracks_1_44 ignore ID=526380, use ID=358044
  622. LOG : General , 1654610254054> 316 671 103> duplicate texture d_streetcracks_1_45 ignore ID=526381, use ID=358045
  623. LOG : General , 1654610254055> 316 671 103> duplicate texture d_streetcracks_1_46 ignore ID=526382, use ID=358046
  624. LOG : General , 1654610254055> 316 671 104> duplicate texture d_streetcracks_1_47 ignore ID=526383, use ID=358047
  625. LOG : General , 1654610254070> 316 671 118> duplicate texture d_streetcracks_1_48 ignore ID=526384, use ID=358048
  626. LOG : General , 1654610254070> 316 671 119> duplicate texture d_streetcracks_1_49 ignore ID=526385, use ID=358049
  627. LOG : General , 1654610254071> 316 671 119> duplicate texture d_streetcracks_1_50 ignore ID=526386, use ID=358050
  628. LOG : General , 1654610254071> 316 671 120> duplicate texture d_streetcracks_1_51 ignore ID=526387, use ID=358051
  629. LOG : General , 1654610254071> 316 671 120> duplicate texture d_streetcracks_1_52 ignore ID=526388, use ID=358052
  630. LOG : General , 1654610254072> 316 671 120> duplicate texture d_streetcracks_1_53 ignore ID=526389, use ID=358053
  631. LOG : General , 1654610254072> 316 671 121> duplicate texture d_streetcracks_1_54 ignore ID=526390, use ID=358054
  632. LOG : General , 1654610254072> 316 671 121> duplicate texture d_streetcracks_1_55 ignore ID=526391, use ID=358055
  633. LOG : General , 1654610254073> 316 671 121> duplicate texture d_streetcracks_1_56 ignore ID=526392, use ID=358056
  634. LOG : General , 1654610254088> 316 671 137> duplicate texture d_streetcracks_1_57 ignore ID=526393, use ID=358057
  635. LOG : General , 1654610254088> 316 671 137> duplicate texture d_streetcracks_1_58 ignore ID=526394, use ID=358058
  636. LOG : General , 1654610254089> 316 671 137> duplicate texture d_streetcracks_1_59 ignore ID=526395, use ID=358059
  637. LOG : General , 1654610254089> 316 671 138> duplicate texture d_streetcracks_1_60 ignore ID=526396, use ID=358060
  638. LOG : General , 1654610254089> 316 671 138> duplicate texture d_streetcracks_1_61 ignore ID=526397, use ID=358061
  639. LOG : General , 1654610254090> 316 671 138> duplicate texture d_streetcracks_1_62 ignore ID=526398, use ID=358062
  640. LOG : General , 1654610254090> 316 671 139> duplicate texture d_streetcracks_1_63 ignore ID=526399, use ID=358063
  641. LOG : General , 1654610254090> 316 671 139> duplicate texture d_streetcracks_1_64 ignore ID=526400, use ID=358064
  642. LOG : General , 1654610254107> 316 671 156> duplicate texture d_streetcracks_1_65 ignore ID=526401, use ID=358065
  643. LOG : General , 1654610254108> 316 671 156> duplicate texture d_streetcracks_1_66 ignore ID=526402, use ID=358066
  644. LOG : General , 1654610254108> 316 671 157> duplicate texture d_streetcracks_1_67 ignore ID=526403, use ID=358067
  645. LOG : General , 1654610254109> 316 671 157> duplicate texture d_streetcracks_1_68 ignore ID=526404, use ID=358068
  646. LOG : General , 1654610254109> 316 671 158> duplicate texture d_streetcracks_1_69 ignore ID=526405, use ID=358069
  647. LOG : General , 1654610254109> 316 671 158> duplicate texture d_streetcracks_1_70 ignore ID=526406, use ID=358070
  648. LOG : General , 1654610254110> 316 671 158> duplicate texture d_streetcracks_1_71 ignore ID=526407, use ID=358071
  649. LOG : General , 1654610254110> 316 671 159> duplicate texture d_streetcracks_1_72 ignore ID=526408, use ID=358072
  650. LOG : General , 1654610254111> 316 671 159> duplicate texture d_streetcracks_1_73 ignore ID=526409, use ID=358073
  651. LOG : General , 1654610254125> 316 671 173> duplicate texture d_streetcracks_1_74 ignore ID=526410, use ID=358074
  652. LOG : General , 1654610254125> 316 671 174> duplicate texture d_streetcracks_1_75 ignore ID=526411, use ID=358075
  653. LOG : General , 1654610254126> 316 671 174> duplicate texture d_streetcracks_1_76 ignore ID=526412, use ID=358076
  654. LOG : General , 1654610254126> 316 671 175> duplicate texture d_streetcracks_1_77 ignore ID=526413, use ID=358077
  655. LOG : General , 1654610254127> 316 671 175> duplicate texture d_streetcracks_1_78 ignore ID=526414, use ID=358078
  656. LOG : General , 1654610254127> 316 671 176> duplicate texture d_streetcracks_1_79 ignore ID=526415, use ID=358079
  657. LOG : General , 1654610254127> 316 671 176> duplicate texture d_streetcracks_1_80 ignore ID=526416, use ID=358080
  658. LOG : General , 1654610254128> 316 671 176> duplicate texture d_streetcracks_1_81 ignore ID=526417, use ID=358081
  659. LOG : General , 1654610254140> 316 671 189> duplicate texture d_streetcracks_1_82 ignore ID=526418, use ID=358082
  660. LOG : General , 1654610254140> 316 671 189> duplicate texture d_streetcracks_1_83 ignore ID=526419, use ID=358083
  661. LOG : General , 1654610254141> 316 671 190> duplicate texture d_streetcracks_1_84 ignore ID=526420, use ID=358084
  662. LOG : General , 1654610254142> 316 671 190> duplicate texture d_streetcracks_1_85 ignore ID=526421, use ID=358085
  663. LOG : General , 1654610254142> 316 671 191> duplicate texture d_streetcracks_1_86 ignore ID=526422, use ID=358086
  664. LOG : General , 1654610254143> 316 671 191> duplicate texture d_streetcracks_1_87 ignore ID=526423, use ID=358087
  665. LOG : General , 1654610254143> 316 671 191> duplicate texture d_streetcracks_1_88 ignore ID=526424, use ID=358088
  666. LOG : General , 1654610254143> 316 671 192> duplicate texture d_streetcracks_1_89 ignore ID=526425, use ID=358089
  667. LOG : General , 1654610254143> 316 671 192> duplicate texture d_streetcracks_1_90 ignore ID=526426, use ID=358090
  668. LOG : General , 1654610254157> 316 671 206> duplicate texture d_streetcracks_1_91 ignore ID=526427, use ID=358091
  669. LOG : General , 1654610254158> 316 671 206> duplicate texture d_streetcracks_1_92 ignore ID=526428, use ID=358092
  670. LOG : General , 1654610254158> 316 671 207> duplicate texture d_streetcracks_1_93 ignore ID=526429, use ID=358093
  671. LOG : General , 1654610254158> 316 671 207> duplicate texture d_streetcracks_1_94 ignore ID=526430, use ID=358094
  672. LOG : General , 1654610254159> 316 671 207> duplicate texture d_streetcracks_1_95 ignore ID=526431, use ID=358095
  673. LOG : General , 1654610254159> 316 671 208> duplicate texture d_streetcracks_1_96 ignore ID=526432, use ID=358096
  674. LOG : General , 1654610254159> 316 671 208> duplicate texture d_streetcracks_1_97 ignore ID=526433, use ID=358097
  675. LOG : General , 1654610254160> 316 671 208> duplicate texture d_streetcracks_1_98 ignore ID=526434, use ID=358098
  676. LOG : General , 1654610254172> 316 671 221> duplicate texture d_streetcracks_1_99 ignore ID=526435, use ID=358099
  677. LOG : General , 1654610254173> 316 671 222> duplicate texture d_streetcracks_1_100 ignore ID=526436, use ID=358100
  678. LOG : General , 1654610254174> 316 671 222> duplicate texture d_streetcracks_1_101 ignore ID=526437, use ID=358101
  679. LOG : General , 1654610254174> 316 671 223> duplicate texture d_streetcracks_1_102 ignore ID=526438, use ID=358102
  680. LOG : General , 1654610254175> 316 671 223> duplicate texture d_streetcracks_1_103 ignore ID=526439, use ID=358103
  681. LOG : General , 1654610254175> 316 671 224> duplicate texture d_streetcracks_1_104 ignore ID=526440, use ID=358104
  682. LOG : General , 1654610254175> 316 671 224> duplicate texture d_streetcracks_1_105 ignore ID=526441, use ID=358105
  683. LOG : General , 1654610254176> 316 671 224> duplicate texture d_streetcracks_1_106 ignore ID=526442, use ID=358106
  684. LOG : General , 1654610254176> 316 671 225> duplicate texture d_streetcracks_1_107 ignore ID=526443, use ID=358107
  685. LOG : General , 1654610254269> 316 671 317> duplicate texture d_streetcracks_1_108 ignore ID=526444, use ID=358108
  686. LOG : General , 1654610254269> 316 671 318> duplicate texture d_streetcracks_1_109 ignore ID=526445, use ID=358109
  687. LOG : General , 1654610254270> 316 671 318> duplicate texture d_streetcracks_1_110 ignore ID=526446, use ID=358110
  688. LOG : General , 1654610254270> 316 671 319> duplicate texture d_streetcracks_1_111 ignore ID=526447, use ID=358111
  689. LOG : General , 1654610254270> 316 671 319> duplicate texture d_streetcracks_1_112 ignore ID=526448, use ID=358112
  690. LOG : General , 1654610254271> 316 671 319> duplicate texture d_streetcracks_1_113 ignore ID=526449, use ID=358113
  691. LOG : General , 1654610254271> 316 671 319> duplicate texture d_streetcracks_1_114 ignore ID=526450, use ID=358114
  692. LOG : General , 1654610254271> 316 671 320> duplicate texture d_streetcracks_1_115 ignore ID=526451, use ID=358115
  693. LOG : General , 1654610254290> 316 671 338> duplicate texture d_streetcracks_1_116 ignore ID=526452, use ID=358116
  694. LOG : General , 1654610254290> 316 671 339> duplicate texture d_streetcracks_1_117 ignore ID=526453, use ID=358117
  695. LOG : General , 1654610254291> 316 671 339> duplicate texture d_streetcracks_1_118 ignore ID=526454, use ID=358118
  696. LOG : General , 1654610254291> 316 671 339> duplicate texture d_streetcracks_1_119 ignore ID=526455, use ID=358119
  697. LOG : General , 1654610254291> 316 671 340> duplicate texture d_streetcracks_1_120 ignore ID=526456, use ID=358120
  698. LOG : General , 1654610254291> 316 671 340> duplicate texture d_streetcracks_1_121 ignore ID=526457, use ID=358121
  699. LOG : General , 1654610254292> 316 671 340> duplicate texture d_streetcracks_1_122 ignore ID=526458, use ID=358122
  700. LOG : General , 1654610254292> 316 671 340> duplicate texture d_streetcracks_1_123 ignore ID=526459, use ID=358123
  701. LOG : General , 1654610254292> 316 671 341> duplicate texture d_streetcracks_1_124 ignore ID=526460, use ID=358124
  702. LOG : General , 1654610254315> 316 671 363> duplicate texture d_streetcracks_1_125 ignore ID=526461, use ID=358125
  703. LOG : General , 1654610254315> 316 671 364> duplicate texture d_streetcracks_1_126 ignore ID=526462, use ID=358126
  704. LOG : General , 1654610254316> 316 671 364> duplicate texture d_streetcracks_1_127 ignore ID=526463, use ID=358127
  705. LOG : General , 1654610254326> 316 671 375> duplicate texture d_wallcracks_1_0 ignore ID=537088, use ID=360000
  706. LOG : General , 1654610254326> 316 671 375> duplicate texture d_wallcracks_1_1 ignore ID=537089, use ID=360001
  707. LOG : General , 1654610254327> 316 671 375> duplicate texture d_wallcracks_1_2 ignore ID=537090, use ID=360002
  708. LOG : General , 1654610254327> 316 671 375> duplicate texture d_wallcracks_1_3 ignore ID=537091, use ID=360003
  709. LOG : General , 1654610254327> 316 671 376> duplicate texture d_wallcracks_1_4 ignore ID=537092, use ID=360004
  710. LOG : General , 1654610254334> 316 671 383> duplicate texture d_wallcracks_1_5 ignore ID=537093, use ID=360005
  711. LOG : General , 1654610254334> 316 671 383> duplicate texture d_wallcracks_1_6 ignore ID=537094, use ID=360006
  712. LOG : General , 1654610254335> 316 671 383> duplicate texture d_wallcracks_1_7 ignore ID=537095, use ID=360007
  713. LOG : General , 1654610254335> 316 671 383> duplicate texture d_wallcracks_1_8 ignore ID=537096, use ID=360008
  714. LOG : General , 1654610254335> 316 671 384> duplicate texture d_wallcracks_1_9 ignore ID=537097, use ID=360009
  715. LOG : General , 1654610254335> 316 671 384> duplicate texture d_wallcracks_1_10 ignore ID=537098, use ID=360010
  716. LOG : General , 1654610254336> 316 671 384> duplicate texture d_wallcracks_1_11 ignore ID=537099, use ID=360011
  717. LOG : General , 1654610254336> 316 671 384> duplicate texture d_wallcracks_1_12 ignore ID=537100, use ID=360012
  718. LOG : General , 1654610254336> 316 671 385> duplicate texture d_wallcracks_1_13 ignore ID=537101, use ID=360013
  719. LOG : General , 1654610254359> 316 671 407> duplicate texture d_wallcracks_1_14 ignore ID=537102, use ID=360014
  720. LOG : General , 1654610254359> 316 671 408> duplicate texture d_wallcracks_1_15 ignore ID=537103, use ID=360015
  721. LOG : General , 1654610254359> 316 671 408> duplicate texture d_wallcracks_1_16 ignore ID=537104, use ID=360016
  722. LOG : General , 1654610254359> 316 671 408> duplicate texture d_wallcracks_1_17 ignore ID=537105, use ID=360017
  723. LOG : General , 1654610254360> 316 671 408> duplicate texture d_wallcracks_1_18 ignore ID=537106, use ID=360018
  724. LOG : General , 1654610254360> 316 671 408> duplicate texture d_wallcracks_1_19 ignore ID=537107, use ID=360019
  725. LOG : General , 1654610254360> 316 671 409> duplicate texture d_wallcracks_1_20 ignore ID=537108, use ID=360020
  726. LOG : General , 1654610254360> 316 671 409> duplicate texture d_wallcracks_1_21 ignore ID=537109, use ID=360021
  727. LOG : General , 1654610254360> 316 671 409> duplicate texture d_wallcracks_1_22 ignore ID=537110, use ID=360022
  728. LOG : General , 1654610254379> 316 671 428> duplicate texture d_wallcracks_1_23 ignore ID=537111, use ID=360023
  729. LOG : General , 1654610254379> 316 671 428> duplicate texture d_wallcracks_1_24 ignore ID=537112, use ID=360024
  730. LOG : General , 1654610254380> 316 671 428> duplicate texture d_wallcracks_1_25 ignore ID=537113, use ID=360025
  731. LOG : General , 1654610254380> 316 671 429> duplicate texture d_wallcracks_1_26 ignore ID=537114, use ID=360026
  732. LOG : General , 1654610254380> 316 671 429> duplicate texture d_wallcracks_1_27 ignore ID=537115, use ID=360027
  733. LOG : General , 1654610254381> 316 671 429> duplicate texture d_wallcracks_1_28 ignore ID=537116, use ID=360028
  734. LOG : General , 1654610254381> 316 671 429> duplicate texture d_wallcracks_1_29 ignore ID=537117, use ID=360029
  735. LOG : General , 1654610254381> 316 671 430> duplicate texture d_wallcracks_1_30 ignore ID=537118, use ID=360030
  736. LOG : General , 1654610254381> 316 671 430> duplicate texture d_wallcracks_1_31 ignore ID=537119, use ID=360031
  737. LOG : General , 1654610254398> 316 671 447> duplicate texture d_wallcracks_1_32 ignore ID=537120, use ID=360032
  738. LOG : General , 1654610254398> 316 671 447> duplicate texture d_wallcracks_1_33 ignore ID=537121, use ID=360033
  739. LOG : General , 1654610254399> 316 671 447> duplicate texture d_wallcracks_1_34 ignore ID=537122, use ID=360034
  740. LOG : General , 1654610254399> 316 671 448> duplicate texture d_wallcracks_1_35 ignore ID=537123, use ID=360035
  741. LOG : General , 1654610254399> 316 671 448> duplicate texture d_wallcracks_1_36 ignore ID=537124, use ID=360036
  742. LOG : General , 1654610254399> 316 671 448> duplicate texture d_wallcracks_1_37 ignore ID=537125, use ID=360037
  743. LOG : General , 1654610254400> 316 671 448> duplicate texture d_wallcracks_1_38 ignore ID=537126, use ID=360038
  744. LOG : General , 1654610254400> 316 671 448> duplicate texture d_wallcracks_1_39 ignore ID=537127, use ID=360039
  745. LOG : General , 1654610254417> 316 671 465> duplicate texture d_wallcracks_1_40 ignore ID=537128, use ID=360040
  746. LOG : General , 1654610254417> 316 671 466> duplicate texture d_wallcracks_1_41 ignore ID=537129, use ID=360041
  747. LOG : General , 1654610254417> 316 671 466> duplicate texture d_wallcracks_1_42 ignore ID=537130, use ID=360042
  748. LOG : General , 1654610254417> 316 671 466> duplicate texture d_wallcracks_1_43 ignore ID=537131, use ID=360043
  749. LOG : General , 1654610254418> 316 671 466> duplicate texture d_wallcracks_1_44 ignore ID=537132, use ID=360044
  750. LOG : General , 1654610254418> 316 671 466> duplicate texture d_wallcracks_1_45 ignore ID=537133, use ID=360045
  751. LOG : General , 1654610254418> 316 671 467> duplicate texture d_wallcracks_1_46 ignore ID=537134, use ID=360046
  752. LOG : General , 1654610254418> 316 671 467> duplicate texture d_wallcracks_1_47 ignore ID=537135, use ID=360047
  753. LOG : General , 1654610254419> 316 671 467> duplicate texture d_wallcracks_1_48 ignore ID=537136, use ID=360048
  754. LOG : General , 1654610254434> 316 671 482> duplicate texture d_wallcracks_1_49 ignore ID=537137, use ID=360049
  755. LOG : General , 1654610254434> 316 671 483> duplicate texture d_wallcracks_1_50 ignore ID=537138, use ID=360050
  756. LOG : General , 1654610254434> 316 671 483> duplicate texture d_wallcracks_1_51 ignore ID=537139, use ID=360051
  757. LOG : General , 1654610254434> 316 671 483> duplicate texture d_wallcracks_1_52 ignore ID=537140, use ID=360052
  758. LOG : General , 1654610254435> 316 671 483> duplicate texture d_wallcracks_1_53 ignore ID=537141, use ID=360053
  759. LOG : General , 1654610254435> 316 671 483> duplicate texture d_wallcracks_1_54 ignore ID=537142, use ID=360054
  760. LOG : General , 1654610254435> 316 671 484> duplicate texture d_wallcracks_1_55 ignore ID=537143, use ID=360055
  761. LOG : General , 1654610254435> 316 671 484> duplicate texture d_wallcracks_1_56 ignore ID=537144, use ID=360056
  762. LOG : General , 1654610254436> 316 671 484> duplicate texture d_wallcracks_1_57 ignore ID=537145, use ID=360057
  763. LOG : General , 1654610254453> 316 671 501> duplicate texture d_wallcracks_1_58 ignore ID=537146, use ID=360058
  764. LOG : General , 1654610254453> 316 671 502> duplicate texture d_wallcracks_1_59 ignore ID=537147, use ID=360059
  765. LOG : General , 1654610254453> 316 671 502> duplicate texture d_wallcracks_1_60 ignore ID=537148, use ID=360060
  766. LOG : General , 1654610254454> 316 671 502> duplicate texture d_wallcracks_1_61 ignore ID=537149, use ID=360061
  767. LOG : General , 1654610254454> 316 671 502> duplicate texture d_wallcracks_1_62 ignore ID=537150, use ID=360062
  768. LOG : General , 1654610254454> 316 671 503> duplicate texture d_wallcracks_1_63 ignore ID=537151, use ID=360063
  769. LOG : General , 1654610254454> 316 671 503> duplicate texture d_wallcracks_1_64 ignore ID=537152, use ID=360064
  770. LOG : General , 1654610254454> 316 671 503> duplicate texture d_wallcracks_1_65 ignore ID=537153, use ID=360065
  771. LOG : General , 1654610254472> 316 671 521> duplicate texture d_wallcracks_1_66 ignore ID=537154, use ID=360066
  772. LOG : General , 1654610254472> 316 671 521> duplicate texture d_wallcracks_1_67 ignore ID=537155, use ID=360067
  773. LOG : General , 1654610254473> 316 671 521> duplicate texture d_wallcracks_1_68 ignore ID=537156, use ID=360068
  774. LOG : General , 1654610254473> 316 671 521> duplicate texture d_wallcracks_1_69 ignore ID=537157, use ID=360069
  775. LOG : General , 1654610254473> 316 671 522> duplicate texture d_wallcracks_1_70 ignore ID=537158, use ID=360070
  776. LOG : General , 1654610254473> 316 671 522> duplicate texture d_wallcracks_1_71 ignore ID=537159, use ID=360071
  777. LOG : General , 1654610254478> 316 671 526> MOVABLES: E face defined more than once for group: (Low Hedge) sheet = f_bushes_2
  778. LOG : General , 1654610254478> 316 671 527> MOVABLES: S face defined more than once for group: (Low Hedge) sheet = f_bushes_2
  779. LOG : General , 1654610254478> 316 671 527> MOVABLES: E face defined more than once for group: (Tall Hedge) sheet = f_bushes_2
  780. LOG : General , 1654610254488> 316 671 537> MOVABLES: S face defined more than once for group: (Tall Hedge) sheet = f_bushes_2
  781. LOG : General , 1654610254489> 316 671 537> MOVABLES: N face defined more than once for group: (Low Corner Hedge) sheet = f_bushes_2
  782. LOG : General , 1654610254489> 316 671 537> MOVABLES: S face defined more than once for group: (Low Corner Hedge) sheet = f_bushes_2
  783. LOG : General , 1654610254489> 316 671 538> MOVABLES: N face defined more than once for group: (Tall Corner Hedge) sheet = f_bushes_2
  784. LOG : General , 1654610254489> 316 671 538> MOVABLES: S face defined more than once for group: (Tall Corner Hedge) sheet = f_bushes_2
  785. LOG : General , 1654610254490> 316 671 539> tiledef: loading G:\AMP\Instances\ProjectZomboid\project-zomboid\380870\media\tiledefinitions_apcom.tiles
  786. LOG : General , 1654610254493> 316 671 542> tiledef: loading G:\AMP\Instances\ProjectZomboid\project-zomboid\380870\media\tiledefinitions_overlays.tiles
  787. LOG : General , 1654610254524> 316 671 573> tiledef: loading G:\AMP\Instances\ProjectZomboid\project-zomboid\380870\media\tiledefinitions_noiseworks.patch.tiles
  788. LOG : General , 1654610254538> 316 671 586> MOVABLES: E face defined more than once for group: (Bar Wall Bar) sheet = location_restaurant_bar_01
  789. LOG : General , 1654610254538> 316 671 587> MOVABLES: S face defined more than once for group: (Bar Wall Bar) sheet = location_restaurant_bar_01
  790. LOG : General , 1654610254538> 316 671 587> MOVABLES: E face defined more than once for group: (Left Bar Wall Bar) sheet = location_restaurant_bar_01
  791. LOG : General , 1654610254539> 316 671 587> MOVABLES: S face defined more than once for group: (Left Bar Wall Bar) sheet = location_restaurant_bar_01
  792. LOG : General , 1654610254539> 316 671 587> MOVABLES: E face defined more than once for group: (Right Bar Wall Bar) sheet = location_restaurant_bar_01
  793. LOG : General , 1654610254539> 316 671 588> MOVABLES: S face defined more than once for group: (Right Bar Wall Bar) sheet = location_restaurant_bar_01
  794. LOG : General , 1654610254539> 316 671 588> MOVABLES: E face defined more than once for group: (Bar Tap Antique) sheet = location_restaurant_bar_01
  795. LOG : General , 1654610254540> 316 671 588> MOVABLES: Object has too many faces defined for group: (Bar Counter) sheet = location_restaurant_bar_01
  796. LOG : General , 1654610254540> 316 671 589> MOVABLES: Object has too many faces defined for group: (Bar Corner Counter) sheet = location_restaurant_bar_01
  797. LOG : General , 1654610254555> 316 671 604> MOVABLES: Object has only one face defined for group: (Streetname Sign) sheet = street_decoration_01
  798. LOG : General , 1654610254556> 316 671 604> MOVABLES: Not all members have a valid face defined for group: (Streetname Sign) sheet = street_decoration_01
  799. WARN : IsoRegion , 1654610254597> 316 671 645> IsoRegionsLogger.warn> IsoRegion: A chunk save has been found that was not in header known chunks list.
  800. WARN : IsoRegion , 1654610254598> 316 671 647> IsoRegionsLogger.warn> IsoRegion: A chunk save has been found that was not in header known chunks list.
  801. WARN : IsoRegion , 1654610254600> 316 671 648> IsoRegionsLogger.warn> IsoRegion: A chunk save has been found that was not in header known chunks list.
  802. WARN : IsoRegion , 1654610254601> 316 671 650> IsoRegionsLogger.warn> IsoRegion: A chunk save has been found that was not in header known chunks list.
  803. WARN : IsoRegion , 1654610254603> 316 671 651> IsoRegionsLogger.warn> IsoRegion: A chunk save has been found that was not in header known chunks list.
  804. WARN : IsoRegion , 1654610254604> 316 671 653> IsoRegionsLogger.warn> IsoRegion: A chunk save has been found that was not in header known chunks list.
  805. WARN : IsoRegion , 1654610254605> 316 671 654> IsoRegionsLogger.warn> IsoRegion: A chunk save has been found that was not in header known chunks list.
  806. WARN : IsoRegion , 1654610254606> 316 671 655> IsoRegionsLogger.warn> IsoRegion: A chunk save has been found that was not in header known chunks list.
  807. WARN : IsoRegion , 1654610254607> 316 671 655> IsoRegionsLogger.warn> IsoRegion: A chunk save has been found that was not in header known chunks list.
  808. WARN : IsoRegion , 1654610254607> 316 671 656> IsoRegionsLogger.warn> IsoRegion: A chunk save has been found that was not in header known chunks list.
  809. WARN : IsoRegion , 1654610254608> 316 671 656> IsoRegionsLogger.warn> IsoRegion: A chunk save has been found that was not in header known chunks list.
  810. WARN : IsoRegion , 1654610254608> 316 671 657> IsoRegionsLogger.warn> IsoRegion: A chunk save has been found that was not in header known chunks list.
  811. WARN : IsoRegion , 1654610254609> 316 671 657> IsoRegionsLogger.warn> IsoRegion: A chunk save has been found that was not in header known chunks list.
  812. WARN : IsoRegion , 1654610254609> 316 671 658> IsoRegionsLogger.warn> IsoRegion: A chunk save has been found that was not in header known chunks list.
  813. WARN : IsoRegion , 1654610254610> 316 671 658> IsoRegionsLogger.warn> IsoRegion: A chunk save has been found that was not in header known chunks list.
  814. WARN : IsoRegion , 1654610254610> 316 671 659> IsoRegionsLogger.warn> IsoRegion: A chunk save has been found that was not in header known chunks list.
  815. WARN : IsoRegion , 1654610254611> 316 671 659> IsoRegionsLogger.warn> IsoRegion: A chunk save has been found that was not in header known chunks list.
  816. WARN : IsoRegion , 1654610254611> 316 671 660> IsoRegionsLogger.warn> IsoRegion: A chunk save has been found that was not in header known chunks list.
  817. WARN : IsoRegion , 1654610254612> 316 671 660> IsoRegionsLogger.warn> IsoRegion: A chunk save has been found that was not in header known chunks list.
  818. WARN : IsoRegion , 1654610254612> 316 671 661> IsoRegionsLogger.warn> IsoRegion: A chunk save has been found that was not in header known chunks list.
  819. WARN : IsoRegion , 1654610254613> 316 671 661> IsoRegionsLogger.warn> IsoRegion: A chunk save has been found that was not in header known chunks list.
  820. WARN : IsoRegion , 1654610254613> 316 671 662> IsoRegionsLogger.warn> IsoRegion: A chunk save has been found that was not in header known chunks list.
  821. LOG : General , 1654610254623> 316 671 672> Loading Recorded Media:G:\AMP\Instances\ProjectZomboid\project-zomboid\380870\.\Zomboid\Saves\Multiplayer\\servertest\recorded_media.bin
  822. LOG : General , 1654610254860> 316 671 909> Saving Recorded Media:G:\AMP\Instances\ProjectZomboid\project-zomboid\380870\.\Zomboid\Saves\Multiplayer\\servertest\recorded_media.bin
  823. LOG : General , 1654610255271> 316 672 320> scriptmanager = zombie.radio.scripting.RadioScriptManager@3a1b36a1, isNewGame = false
  824. LOG : General , 1654610255273> 316 672 321> name = Automated Emergency Broadcast System, freq = 107800, cat = Emergency, uuid = EMRG-711984
  825. LOG : General , 1654610255276> 316 672 325> Radio Loading channels...
  826. LOG : General , 1654610255281> 316 672 330> Loading GlobalModData:G:\AMP\Instances\ProjectZomboid\project-zomboid\380870\.\Zomboid\Saves\Multiplayer\\servertest\global_mod_data.bin
  827. LOG : General , 1654610255284> 316 672 332> erosion: reading G:\AMP\Instances\ProjectZomboid\project-zomboid\380870\.\Zomboid\Saves\Multiplayer\servertest\erosion.ini
  828. LOG : General , 1654610255339> 316 672 387> WorldDictionary: Checking dictionary...
  829. LOG : General , 1654610255396> 316 672 444> Loading WorldDictionary:G:\AMP\Instances\ProjectZomboid\project-zomboid\380870\.\Zomboid\Saves\Multiplayer\\servertest\WorldDictionary.bin
  830. LOG : General , 1654610256448> 316 673 497> IsoMetaGrid.Create: finished loading in 5.378 seconds
  831. LOG : General , 1654610256535> 316 673 583> Calculate weather front strength = 0.5569646
  832. LOG : General , 1654610256556> 316 673 605> Calculate weather front strength = 0.39497328
  833. LOG : General , 1654610256565> 316 673 613> Calculate weather front strength = 0.84781617
  834. LOG : General , 1654610256570> 316 673 619> Calculate weather front strength = 0.30410123
  835. LOG : Lua , 1654610256585> 316 673 633> Loading: media/maps/Muldraugh, KY/objects.lua
  836. LOG : General , 1654610259802> 316 676 851> can't find map objects file: media/maps/Rosewood, KY/objects.lua
  837. LOG : General , 1654610260108> 316 677 157> loading 19449 zones from map_zone.bin
  838. LOG : General , 1654610260403> 316 677 451> Max #ZONES on one chunk is 19
  839. LOG : General , 1654610260682> 316 677 731> reanimate: loaded 0 zombies
  840. LOG : Network , 1654610260949> 316 677 998> Initialising RakNet...
  841. LOG : General , 1654610260950> 316 677 998> 1654610260950 znet: Java_zombie_core_raknet_RakNetPeerInterface_Init
  842. LOG : General , 1654610260950> 316 677 999> 1654610260950 znet: g_peer = 0xeb5690e0
  843. LOG : General , 1654610260951> 316 678 000> 1654610260951 znet: Java_zombie_core_raknet_RakNetPeerInterface_SetMaximumIncomingConnections
  844. LOG : General , 1654610260952> 316 678 000> 1654610260952 znet: Java_zombie_core_raknet_RakNetPeerInterface_SetServerPort
  845. LOG : General , 1654610261576> 316 678 625> 1654610261576 znet: Java_zombie_core_raknet_RakNetPeerInterface_SetIncomingPassword
  846. LOG : General , 1654610261577> 316 678 626> 1654610261577 znet: Java_zombie_core_raknet_RakNetPeerInterface_SetOccasionalPing
  847. LOG : General , 1654610261578> 316 678 626> 1654610261578 znet: Java_zombie_core_raknet_RakNetPeerInterface_Startup
  848. LOG : General , 1654610261578> 316 678 627> 1654610261578 znet: Zomboid Steam Server started, ports 8767 and 19132 must be open on the router
  849. LOG : General , 1654610261596> 316 678 644> 1654610261596 znet: OnRakPeerStartup
  850. LOG : General , 1654610261597> 316 678 645> 1654610261597 znet: RakNet-through-Steam mode activated
  851. LOG : Network , 1654610261597> 316 678 646> RakNet.Startup() return code: 0 (0 means success)
  852. LOG : General , 1654610261598> 316 678 647> 1654610261598 znet: Java_zombie_core_raknet_RakVoice_RVInitServer
  853. LOG : General , 1654610261599> 316 678 648> 1654610261599 znet: g_peer = 0xeb5690e0
  854. LOG : Network , 1654610261600> 316 678 649> *** SERVER STARTED ****
  855. LOG : Network , 1654610261601> 316 678 649> *** Steam is enabled
  856. LOG : Network , 1654610261601> 316 678 650> server is listening on port 19132
  857. LOG : General , 1654610261602> 316 678 650> LuaNet: Initializing...
  858. LOG : General , 1654610261603> 316 678 652> LuaNet: Registering server listener...
  859. LOG : General , 1654610261604> 316 678 653> LuaNet: Initialization [DONE], triggering events for 'LuaNet.onInitAdd'.
  860. LOG : Network , 1654610261605> 316 678 654> DISCORD: token not configured
  861. LOG : Network , 1654610261605> 316 678 654> *** DISCORD DISABLED ****
  862. LOG : General , 1654610261606> 316 678 655> ##########
  863. Server Steam ID 90159907885973508
  864. ##########
  865. LOG : Multiplayer , 1654610261661> 316 678 710> [MPStatistics] mem usage notification threshold=4 080 218 880
  866. LOG : General , 1654610261679> 316 678 727> RCON: listening on port 27018
  867. LOG : General , 1654610265361> 316 682 410> 1654610265361 znet: OnPolicyResponse
  868. LOG : General , 1654610265362> 316 682 411> 1654610265362 znet: Zomboid Server is VAC Secure
  869.  
Advertisement
RAW Paste Data Copied
Advertisement